M I D A S
Marine Information and Data Acquisition System
Tripno 2088 of the Zeeleeuw from 2011-02-15 05:59:19 to 2011-02-15 14:27:17
Back to CruiseResearch ActivitiesStationsMapUnderway DataData graphs

EquipmentUnitsComment
TimeDGPSUTC
LatitudeDGPSDM.mWGS84
LongitudeDGPSDM.mWGS84
TemperatureSBE03/SBE38deg celciusITS90
ConductivitySBE21S/mITS90
SalinitySBE21 Practical Salinity Units
ChlorophylAChelsea fluorimeterg/lCalibrated in Aceton
Missing or incorrect values are displayed as -999
Sea surface data collected by the RV Zeeleeuw from 2011-02-15 05:54:16 to 2011-02-15 15:52:14
                                                                                    Next 1000 lines
Time Latitude Longitude Temperature Conductivity Salinity ChlorophylA
2011-02-15 05:54:27 51°13.662 2°55.959 14.4516 0.06433 0.352491 0.253098
2011-02-15 05:54:32 51°13.662 2°55.959 14.4518 0.06433 0.352491 0.218274
2011-02-15 05:54:37 51°13.662 2°55.959 14.4494 0.06433 0.352491 0.218274
2011-02-15 05:54:42 51°13.662 2°55.959 14.4493 0.06433 0.352486 0.218274
2011-02-15 05:54:47 51°13.662 2°55.959 14.4486 0.06433 0.352486 0.253098
2011-02-15 05:54:51 51°13.662 2°55.959 14.4475 0.06433 0.352486 0.218274
2011-02-15 05:54:56 51°13.662 2°55.959 14.4487 0.06433 0.35248 0.253098
2011-02-15 05:55:01 51°13.662 2°55.959 14.4501 0.06433 0.35248 0.218274
2011-02-15 05:55:07 51°13.662 2°55.959 14.4497 0.06433 0.35248 0.218274
2011-02-15 05:55:12 51°13.662 2°55.959 14.4503 0.06433 0.35248 0.218274
2011-02-15 05:55:17 51°13.662 2°55.959 14.4507 0.06433 0.35248 0.253098
2011-02-15 05:55:22 51°13.662 2°55.959 14.4505 0.06433 0.352474 0.218274
2011-02-15 05:55:27 51°13.662 2°55.959 14.4505 0.06433 0.352474 0.218274
2011-02-15 05:55:31 51°13.662 2°55.959 14.4494 0.06433 0.352474 0.253098
2011-02-15 05:55:37 51°13.662 2°55.959 14.4495 0.06433 0.352474 0.253098
2011-02-15 05:55:42 51°13.662 2°55.959 14.4493 0.06433 0.352474 0.253098
2011-02-15 05:55:47 51°13.662 2°55.959 14.4485 0.06433 0.352468 0.218274
2011-02-15 05:55:52 51°13.662 2°55.959 14.4485 0.06433 0.352468 0.218274
2011-02-15 05:55:56 51°13.662 2°55.959 14.4484 0.06433 0.352468 0.253098
2011-02-15 05:56:01 51°13.662 2°55.959 14.4496 0.06433 0.352468 0.218274
2011-02-15 05:56:06 51°13.662 2°55.959 14.4487 0.06433 0.352468 0.218274
2011-02-15 05:56:11 51°13.662 2°55.959 14.4471 0.06433 0.352463 0.218274
2011-02-15 05:56:16 51°13.662 2°55.959 14.4446 0.06433 0.352463 0.218274
2011-02-15 05:56:21 51°13.662 2°55.959 14.4454 0.06433 0.352457 0.218274
2011-02-15 05:56:26 51°13.662 2°55.958 14.4459 0.06433 0.352463 0.218274
2011-02-15 05:56:31 51°13.662 2°55.958 14.4456 0.06433 0.352463 0.253098
2011-02-15 05:56:36 51°13.662 2°55.958 14.4457 0.06433 0.352463 0.253098
2011-02-15 05:56:40 51°13.662 2°55.959 14.4461 0.06433 0.352463 0.218274
2011-02-15 05:56:45 51°13.662 2°55.959 14.4479 0.06433 0.352457 0.218274
2011-02-15 05:56:50 51°13.662 2°55.959 14.4508 0.06433 0.352457 0.253098
2011-02-15 05:56:55 51°13.662 2°55.959 14.4514 0.06433 0.352457 0.218274
2011-02-15 05:57:01 51°13.662 2°55.959 14.4547 0.06433 0.352457 0.253098
2011-02-15 05:57:06 51°13.662 2°55.959 14.4533 0.06433 0.352457 0.253098
2011-02-15 05:57:11 51°13.661 2°55.959 14.4552 0.06433 0.352451 0.253098
2011-02-15 05:57:16 51°13.661 2°55.959 14.456 0.06433 0.352451 0.218274
2011-02-15 05:57:21 51°13.661 2°55.959 14.4509 0.06433 0.352451 0.253098
2011-02-15 05:57:25 51°13.661 2°55.959 14.4532 0.06433 0.352446 0.253098
2011-02-15 05:57:31 51°13.661 2°55.959 14.4565 0.06433 0.352446 0.253098
2011-02-15 05:57:36 51°13.661 2°55.959 14.4612 0.06433 0.352446 0.253098
2011-02-15 05:57:41 51°13.661 2°55.959 14.4583 0.06433 0.352451 0.253098
2011-02-15 05:57:45 51°13.661 2°55.959 14.4604 0.06433 0.352457 0.253098
2011-02-15 05:57:50 51°13.661 2°55.959 14.4631 0.06433 0.352451 0.218274
2011-02-15 05:57:56 51°13.661 2°55.959 14.4643 0.06433 0.352457 0.253098
2011-02-15 05:58:01 51°13.662 2°55.96 14.4661 0.06433 0.352446 0.253098
2011-02-15 05:58:05 51°13.661 2°55.959 14.4711 0.06433 0.352446 0.253098
2011-02-15 05:58:10 51°13.662 2°55.96 14.4732 0.06433 0.352451 0.218274
2011-02-15 05:58:15 51°13.662 2°55.96 14.4737 0.06433 0.352451 0.253098
2011-02-15 05:58:20 51°13.662 2°55.96 14.4732 0.06433 0.352451 0.253098
2011-02-15 05:58:26 51°13.662 2°55.96 14.4728 0.06433 0.352446 0.253098
2011-02-15 05:58:32 51°13.662 2°55.96 14.4731 0.06433 0.352446 0.253098
2011-02-15 05:58:37 51°13.662 2°55.96 14.4752 0.06433 0.352446 0.253098
2011-02-15 05:58:42 51°13.662 2°55.96 14.4765 0.06433 0.352446 0.218274
2011-02-15 05:58:47 51°13.662 2°55.96 14.478 0.06433 0.35244 0.253098
2011-02-15 05:58:52 51°13.662 2°55.96 14.4786 0.06433 0.35244 0.253098
2011-02-15 05:58:57 51°13.662 2°55.96 14.477 0.06433 0.352446 0.253098
2011-02-15 05:59:02 51°13.662 2°55.96 14.476 0.06433 0.35244 0.218274
2011-02-15 05:59:07 51°13.662 2°55.96 14.4819 0.06433 0.35244 0.218274
2011-02-15 05:59:12 51°13.662 2°55.96 14.4767 0.06433 0.352446 0.253098
2011-02-15 05:59:17 51°13.662 2°55.96 14.4744 0.06433 0.35244 0.218274
2011-02-15 05:59:22 51°13.662 2°55.96 14.4689 0.06433 0.35244 0.253098
2011-02-15 05:59:27 51°13.662 2°55.96 14.4704 0.06433 0.35244 0.218274
2011-02-15 05:59:33 51°13.662 2°55.96 14.47 0.06433 0.35244 0.253098
2011-02-15 05:59:36 51°13.662 2°55.96 14.4712 0.06433 0.35244 0.253098
2011-02-15 05:59:41 51°13.662 2°55.96 14.4723 0.06433 0.35244 0.218274
2011-02-15 05:59:47 51°13.662 2°55.96 14.4852 0.06433 0.352446 0.218274
2011-02-15 05:59:52 51°13.662 2°55.96 14.4848 0.06433 0.35244 0.218274
2011-02-15 05:59:57 51°13.662 2°55.96 14.4867 0.06433 0.35244 0.218274
2011-02-15 06:00:02 51°13.662 2°55.96 14.4858 0.06433 0.352434 0.253098
2011-02-15 06:00:07 51°13.661 2°55.96 14.4879 0.06433 0.352434 0.253098
2011-02-15 06:00:12 51°13.662 2°55.96 14.4868 0.06433 0.352434 0.218274
2011-02-15 06:00:17 51°13.661 2°55.96 14.4865 0.06433 0.352429 0.253098
2011-02-15 06:00:22 51°13.661 2°55.96 14.485 0.06433 0.352434 0.253098
2011-02-15 06:00:27 51°13.661 2°55.96 14.4844 0.06433 0.352429 0.253098
2011-02-15 06:00:32 51°13.661 2°55.96 14.484 0.06433 0.352429 0.253098
2011-02-15 06:00:36 51°13.661 2°55.96 14.483 0.06433 0.352429 0.253098
2011-02-15 06:00:41 51°13.661 2°55.96 14.4811 0.06433 0.352429 0.253098
2011-02-15 06:00:46 51°13.661 2°55.96 14.4807 0.06433 0.352429 0.253098
2011-02-15 06:00:52 51°13.661 2°55.96 14.4806 0.06433 0.352434 0.253098
2011-02-15 06:00:57 51°13.661 2°55.96 14.4802 0.06433 0.352434 0.253098
2011-02-15 06:01:02 51°13.66 2°55.96 14.4827 0.06433 0.352429 0.253098
2011-02-15 06:01:07 51°13.66 2°55.96 14.4838 0.06433 0.352429 0.253098
2011-02-15 06:01:12 51°13.66 2°55.96 14.4812 0.06433 0.352429 0.218274
2011-02-15 06:01:17 51°13.66 2°55.959 14.4664 0.06433 0.352429 0.253098
2011-02-15 06:01:22 51°13.66 2°55.959 14.4409 0.06433 0.352429 0.253098
2011-02-15 06:01:27 51°13.661 2°55.959 14.4156 0.06433 0.352429 0.218274
2011-02-15 06:01:32 51°13.661 2°55.957 14.2465 0.06433 0.352423 0.218274
2011-02-15 06:01:37 51°13.662 2°55.953 14.3489 0.06433 0.352423 0.218274
2011-02-15 06:01:41 51°13.663 2°55.95 14.401 0.06433 0.352434 0.253098
2011-02-15 06:01:46 51°13.664 2°55.945 14.4476 0.06433 0.352423 0.253098
2011-02-15 06:01:52 51°13.666 2°55.938 14.3522 0.06433 0.352423 0.218274
2011-02-15 06:01:57 51°13.668 2°55.932 14.4648 0.06433 0.352434 0.253098
2011-02-15 06:02:02 51°13.669 2°55.924 14.4645 0.06433 0.35244 0.253098
2011-02-15 06:02:07 51°13.671 2°55.917 14.4522 0.06433 0.35244 0.253098
2011-02-15 06:02:12 51°13.673 2°55.908 14.4508 0.06433 0.352434 0.218274
2011-02-15 06:02:17 51°13.675 2°55.9 14.4528 0.06433 0.352434 0.218274
2011-02-15 06:02:22 51°13.676 2°55.891 14.5032 0.06433 0.352429 0.253098
2011-02-15 06:02:27 51°13.678 2°55.882 14.4943 0.06433 0.352429 0.253098
2011-02-15 06:02:33 51°13.68 2°55.871 14.5001 0.06433 0.352423 0.218274
2011-02-15 06:02:37 51°13.682 2°55.864 14.4958 0.06433 0.352423 0.218274
2011-02-15 06:02:41 51°13.683 2°55.857 14.4985 0.06433 0.352434 0.218274
2011-02-15 06:02:47 51°13.685 2°55.846 14.4937 0.06433 0.352434 0.253098
2011-02-15 06:02:52 51°13.686 2°55.837 14.4947 0.06433 0.352429 0.253098
2011-02-15 06:02:57 51°13.687 2°55.828 14.4934 0.06433 0.352423 0.253098
2011-02-15 06:03:02 51°13.689 2°55.821 14.4946 0.06433 0.352417 0.253098
2011-02-15 06:03:07 51°13.69 2°55.812 14.4951 0.06433 0.352417 0.253098
2011-02-15 06:03:12 51°13.691 2°55.804 14.4954 0.06433 0.352417 0.218274
2011-02-15 06:03:17 51°13.692 2°55.796 14.4969 0.06433 0.352417 0.253098
2011-02-15 06:03:22 51°13.693 2°55.789 14.4975 0.06433 0.352417 0.253098
2011-02-15 06:03:27 51°13.694 2°55.781 14.4981 0.06433 0.352423 0.218274
2011-02-15 06:03:32 51°13.694 2°55.774 14.4964 0.06433 0.352429 0.253098
2011-02-15 06:03:37 51°13.695 2°55.767 14.4958 0.06433 0.352429 0.253098
2011-02-15 06:03:42 51°13.695 2°55.761 14.4947 0.06433 0.352423 0.218274
2011-02-15 06:03:47 51°13.695 2°55.754 14.4929 0.06433 0.352417 0.218274
2011-02-15 06:03:52 51°13.695 2°55.748 14.4937 0.06433 0.352412 0.253098
2011-02-15 06:03:57 51°13.696 2°55.744 14.4933 0.06433 0.352406 0.253098
2011-02-15 06:04:02 51°13.696 2°55.74 14.5218 0.06433 0.352406 0.253098
2011-02-15 06:04:06 51°13.696 2°55.739 14.5288 0.06433 0.352406 0.253098
2011-02-15 06:04:12 51°13.696 2°55.738 14.5254 0.06433 0.352412 0.253098
2011-02-15 06:04:17 51°13.697 2°55.737 14.5199 0.06433 0.352412 0.253098
2011-02-15 06:04:22 51°13.698 2°55.737 14.5144 0.06433 0.352412 0.253098
2011-02-15 06:04:27 51°13.698 2°55.738 14.5099 0.06433 0.352417 0.253098
2011-02-15 06:04:31 51°13.699 2°55.738 14.5068 0.06433 0.352412 0.253098
2011-02-15 06:04:36 51°13.7 2°55.739 14.5055 0.06433 0.352412 0.253098
2011-02-15 06:04:41 51°13.701 2°55.74 14.5055 0.06433 0.352417 0.253098
2011-02-15 06:04:46 51°13.702 2°55.74 14.5056 0.06433 0.352412 0.218274
2011-02-15 06:04:51 51°13.704 2°55.742 14.5061 0.06433 0.352412 0.253098
2011-02-15 06:04:55 51°13.705 2°55.743 14.506 0.06433 0.352406 0.218274
2011-02-15 06:05:00 51°13.707 2°55.743 14.5071 0.06433 0.3524 0.253098
2011-02-15 06:05:05 51°13.709 2°55.744 14.5062 0.06433 0.3524 0.253098
2011-02-15 06:05:10 51°13.711 2°55.745 14.5073 0.06433 0.3524 0.253098
2011-02-15 06:05:15 51°13.713 2°55.745 14.5382 0.06433 0.352394 0.218274
2011-02-15 06:05:19 51°13.715 2°55.746 14.5765 0.06433 0.352394 0.253098
2011-02-15 06:05:24 51°13.717 2°55.746 14.5878 0.06433 0.352394 0.253098
2011-02-15 06:05:29 51°13.72 2°55.746 14.6133 0.06433 0.352394 0.218274
2011-02-15 06:05:34 51°13.723 2°55.745 14.6204 0.06433 0.352394 0.218274
2011-02-15 06:05:39 51°13.727 2°55.744 14.6306 0.06433 0.3524 0.253098
2011-02-15 06:05:44 51°13.731 2°55.742 14.635 0.06433 0.352406 0.218274
2011-02-15 06:05:49 51°13.735 2°55.739 14.6369 0.06433 0.352412 0.253098
2011-02-15 06:05:55 51°13.739 2°55.734 14.6293 0.06433 0.352412 0.253098
2011-02-15 06:06:00 51°13.743 2°55.73 14.5902 0.06433 0.352406 0.218274
2011-02-15 06:06:06 51°13.749 2°55.724 14.5033 0.06433 0.352406 0.218274
2011-02-15 06:06:11 51°13.753 2°55.718 14.4915 0.06433 0.352389 0.253098
2011-02-15 06:06:17 51°13.759 2°55.71 14.4289 0.06433 0.352372 0.253098
2011-02-15 06:06:22 51°13.765 2°55.704 14.4113 0.06433 0.35236 0.253098
2011-02-15 06:06:27 51°13.771 2°55.697 14.3806 0.06433 0.35236 0.253098
2011-02-15 06:06:31 51°13.776 2°55.69 14.3488 0.06433 0.35236 0.253098
2011-02-15 06:06:37 51°13.784 2°55.68 14.3193 0.06433 0.35236 0.253098
2011-02-15 06:06:42 51°13.792 2°55.671 14.2924 0.06433 0.352372 0.218274
2011-02-15 06:06:47 51°13.801 2°55.663 14.2884 0.06433 0.352383 0.253098
2011-02-15 06:06:52 51°13.81 2°55.654 14.261 0.06433 0.352389 0.218274
2011-02-15 06:06:56 51°13.818 2°55.648 14.2046 0.06433 0.3524 0.253098
2011-02-15 06:07:02 51°13.83 2°55.637 14.1402 0.06433 0.3524 0.218274
2011-02-15 06:07:07 51°13.84 2°55.629 14.1332 0.06433 0.3524 0.218274
2011-02-15 06:07:12 51°13.851 2°55.62 14.1826 0.06433 0.352394 0.218274
2011-02-15 06:07:17 51°13.863 2°55.611 14.1973 0.06433 0.352394 0.253098
2011-02-15 06:07:21 51°13.872 2°55.604 14.2453 0.06433 0.3524 0.253098
2011-02-15 06:07:26 51°13.884 2°55.595 14.2434 0.06433 0.3524 0.218274
2011-02-15 06:07:31 51°13.896 2°55.586 14.2272 0.06433 0.3524 0.253098
2011-02-15 06:07:37 51°13.91 2°55.576 14.2589 0.06433 0.3524 0.253098
2011-02-15 06:07:41 51°13.92 2°55.569 14.2646 0.06433 0.352389 0.253098
2011-02-15 06:07:46 51°13.932 2°55.56 14.1883 0.06433 0.352389 0.253098
2011-02-15 06:07:51 51°13.945 2°55.551 14.2202 0.06433 0.352389 0.218274
2011-02-15 06:07:56 51°13.957 2°55.542 14.2229 0.06433 0.352377 0.253098
2011-02-15 06:08:01 51°13.969 2°55.533 14.2828 0.06433 0.352377 0.253098
2011-02-15 06:08:06 51°13.982 2°55.524 14.1972 0.06433 0.352377 0.253098
2011-02-15 06:08:11 51°13.995 2°55.516 14.2607 0.06433 0.352377 0.253098
2011-02-15 06:08:16 51°14.007 2°55.507 14.276 0.06433 0.352377 0.253098
2011-02-15 06:08:21 51°14.019 2°55.498 14.2488 0.06433 0.352377 0.253098
2011-02-15 06:08:26 51°14.032 2°55.49 14.2646 0.06433 0.352372 0.253098
2011-02-15 06:08:31 51°14.045 2°55.481 14.3071 0.06433 0.352366 0.253098
2011-02-15 06:08:35 51°14.055 2°55.474 14.3184 0.06433 0.352366 0.253098
2011-02-15 06:08:40 51°14.068 2°55.465 14.3217 0.06433 0.352366 0.253098
2011-02-15 06:08:45 51°14.081 2°55.456 14.3301 0.06433 0.35236 0.253098
2011-02-15 06:08:50 51°14.093 2°55.446 14.3148 0.06433 0.352355 0.253098
2011-02-15 06:08:55 51°14.106 2°55.437 14.3161 0.06433 0.352366 0.253098
2011-02-15 06:09:00 51°14.119 2°55.428 14.3702 0.06433 0.352349 0.253098
2011-02-15 06:09:05 51°14.132 2°55.418 14.325 0.06433 0.352349 0.253098
2011-02-15 06:09:10 51°14.145 2°55.408 14.3153 0.06433 0.352355 0.253098
2011-02-15 06:09:14 51°14.155 2°55.401 14.3803 0.06433 0.352343 0.253098
2011-02-15 06:09:19 51°14.168 2°55.39 14.4181 0.06433 0.352343 0.287922
2011-02-15 06:09:24 51°14.181 2°55.38 14.3788 0.06433 0.352338 0.253098
2011-02-15 06:09:29 51°14.193 2°55.368 14.3695 0.06433 0.352338 0.253098
2011-02-15 06:09:34 51°14.206 2°55.357 14.3904 0.06433 0.352338 0.253098
2011-02-15 06:09:39 51°14.219 2°55.346 14.4124 0.06433 0.352332 0.253098
2011-02-15 06:09:44 51°14.231 2°55.334 14.3953 0.06433 0.352338 0.218274
2011-02-15 06:09:48 51°14.241 2°55.325 14.3917 0.06433 0.352332 0.253098
2011-02-15 06:09:53 51°14.253 2°55.312 14.4236 0.06433 0.352332 0.253098
2011-02-15 06:09:58 51°14.266 2°55.3 14.329 0.06433 0.352338 0.287922
2011-02-15 06:10:03 51°14.278 2°55.287 14.3587 0.06433 0.352338 0.287922
2011-02-15 06:10:08 51°14.29 2°55.274 14.4145 0.06433 0.35232 0.253098
2011-02-15 06:10:13 51°14.302 2°55.261 14.2957 0.06433 0.35232 0.253098
2011-02-15 06:10:18 51°14.315 2°55.248 14.2852 0.06433 0.35232 0.253098
2011-02-15 06:10:23 51°14.328 2°55.235 14.2716 0.06433 0.35232 0.253098
2011-02-15 06:10:28 51°14.34 2°55.22 14.329 0.06433 0.352309 0.218274
2011-02-15 06:10:33 51°14.352 2°55.207 14.2746 0.06433 0.352309 0.218274
2011-02-15 06:10:38 51°14.365 2°55.193 14.2643 0.06433 0.352309 0.253098
2011-02-15 06:10:43 51°14.378 2°55.18 14.3316 0.06433 0.352315 0.253098
2011-02-15 06:10:48 51°14.391 2°55.165 14.2807 0.06433 0.352303 0.253098
2011-02-15 06:10:53 51°14.404 2°55.151 14.3557 0.06433 0.352315 0.253098
2011-02-15 06:10:58 51°14.417 2°55.137 14.382 0.06433 0.352303 0.253098
2011-02-15 06:11:02 51°14.427 2°55.125 14.4099 0.06433 0.352303 0.253098
2011-02-15 06:11:08 51°14.443 2°55.108 14.2629 0.06433 0.352309 0.287922
2011-02-15 06:11:13 51°14.456 2°55.093 14.3264 0.06433 0.352315 0.253098
2011-02-15 06:11:18 51°14.469 2°55.077 14.2803 0.06433 0.352303 0.287922
2011-02-15 06:11:23 51°14.482 2°55.062 14.0924 0.06433 0.352298 0.253098
2011-02-15 06:11:28 51°14.495 2°55.047 14.2883 0.06433 0.352298 0.253098
2011-02-15 06:11:33 51°14.509 2°55.032 14.3678 0.06433 0.352298 0.253098
2011-02-15 06:11:38 51°14.523 2°55.016 14.361 0.06433 0.352286 0.287922
2011-02-15 06:11:43 51°14.537 2°55.001 13.1899 0.06433 0.352303 0.253098
2011-02-15 06:11:48 51°14.55 2°54.984 9.533 0.06433 0.35232 0.253098
2011-02-15 06:11:53 51°14.565 2°54.968 9.0237 0.066619 0.35903 0.70581
2011-02-15 06:11:58 51°14.579 2°54.95 8.1952 0.407482 2.432081 0.566514
2011-02-15 06:12:02 51°14.59 2°54.938 7.8679 0.407482 2.432081 0.566514
2011-02-15 06:12:08 51°14.608 2°54.918 7.5066 0.356149 2.109421 0.427218
2011-02-15 06:12:13 51°14.622 2°54.901 7.4141 0.337689 2.070315 0.35757
2011-02-15 06:12:18 51°14.637 2°54.884 7.3309 0.354067 2.266168 0.35757
2011-02-15 06:12:23 51°14.652 2°54.868 7.1837 0.805399 5.81193 0.496866
2011-02-15 06:12:28 51°14.667 2°54.851 7.1148 0.958413 7.213699 0.53169
2011-02-15 06:12:33 51°14.681 2°54.834 7.0836 0.958413 7.213699 0.53169
2011-02-15 06:12:38 51°14.696 2°54.817 7.0205 1.429742 11.547126 0.601338
2011-02-15 06:12:42 51°14.708 2°54.804 6.9679 1.994176 17.21594 0.53169
2011-02-15 06:12:48 51°14.726 2°54.784 6.8992 2.88295 26.315197 0.496866
2011-02-15 06:12:53 51°14.741 2°54.768 6.8932 3.214176 30.046209 0.740634
2011-02-15 06:12:58 51°14.756 2°54.75 6.852 3.33011 31.550283 0.496866
2011-02-15 06:13:02 51°14.767 2°54.736 6.8555 3.33011 31.550283 0.496866
2011-02-15 06:13:08 51°14.785 2°54.716 6.8388 3.356569 32.104798 0.496866
2011-02-15 06:13:13 51°14.8 2°54.699 6.8363 3.366375 32.400477 0.601338
2011-02-15 06:13:18 51°14.815 2°54.682 6.8106 3.362792 32.466294 0.566514
2011-02-15 06:13:23 51°14.829 2°54.665 6.7781 3.366061 32.632331 0.496866
2011-02-15 06:13:28 51°14.844 2°54.648 6.8164 3.370806 32.781322 0.670986
2011-02-15 06:13:33 51°14.858 2°54.63 6.7704 3.370806 32.781322 0.670986
2011-02-15 06:13:38 51°14.873 2°54.614 6.742 3.371123 32.862439 0.462042
2011-02-15 06:13:42 51°14.885 2°54.599 6.7472 3.372283 32.91198 0.566514
2011-02-15 06:13:48 51°14.902 2°54.578 6.7674 3.374918 32.980871 0.496866
2011-02-15 06:13:53 51°14.916 2°54.559 6.734 3.373864 32.995311 0.53169
2011-02-15 06:13:58 51°14.93 2°54.541 6.7099 3.375868 33.064889 0.566514
2011-02-15 06:14:03 51°14.944 2°54.523 6.7191 3.375868 33.064889 0.566514
2011-02-15 06:14:08 51°14.958 2°54.504 6.7057 3.376711 33.095191 0.496866
2011-02-15 06:14:13 51°14.971 2°54.485 6.707 3.375974 33.122174 0.53169
2011-02-15 06:14:18 51°14.985 2°54.467 6.6951 3.373023 33.116119 0.53169
2011-02-15 06:14:22 51°14.997 2°54.452 6.7027 3.376817 33.166452 0.636162
2011-02-15 06:14:28 51°15.013 2°54.43 6.6926 3.378821 33.211194 0.53169
2011-02-15 06:14:33 51°15.027 2°54.411 6.6972 3.378821 33.211194 0.53169
2011-02-15 06:14:38 51°15.041 2°54.394 6.6784 3.378821 33.230038 0.566514
2011-02-15 06:14:43 51°15.056 2°54.377 6.6681 3.376186 33.215207 0.427218
2011-02-15 06:14:48 51°15.07 2°54.359 6.6732 3.374816 33.221566 0.496866
2011-02-15 06:14:53 51°15.084 2°54.342 6.6546 3.377135 33.25758 0.53169
2011-02-15 06:14:58 51°15.099 2°54.324 6.6555 3.373551 33.227445 0.496866
2011-02-15 06:15:02 51°15.11 2°54.309 6.6609 3.373551 33.227445 0.496866
2011-02-15 06:15:08 51°15.126 2°54.287 6.6499 3.377135 33.268266 0.427218
2011-02-15 06:15:13 51°15.14 2°54.268 6.6489 3.37334 33.239929 0.496866
2011-02-15 06:15:18 51°15.154 2°54.249 6.6616 3.371127 33.230515 0.462042
2011-02-15 06:15:22 51°15.165 2°54.234 6.6697 3.371127 33.246142 0.53169
2011-02-15 06:15:28 51°15.181 2°54.211 6.6599 3.381352 33.365503 0.53169
2011-02-15 06:15:33 51°15.195 2°54.192 6.6614 3.381352 33.365503 0.53169
2011-02-15 06:15:38 51°15.209 2°54.173 6.6618 3.380298 33.363872 0.53169
2011-02-15 06:15:42 51°15.22 2°54.159 6.659 3.378401 33.348869 0.462042
2011-02-15 06:15:48 51°15.237 2°54.137 6.6424 3.377241 33.345252 0.53169
2011-02-15 06:15:53 51°15.251 2°54.119 6.638 3.379138 33.367698 0.462042
2011-02-15 06:15:58 51°15.265 2°54.102 6.6384 3.379033 33.365716 0.601338
2011-02-15 06:16:03 51°15.279 2°54.084 6.6391 3.379033 33.365716 0.601338
2011-02-15 06:16:08 51°15.294 2°54.066 6.6326 3.377346 33.343929 0.566514
2011-02-15 06:16:13 51°15.308 2°54.049 6.6294 3.379138 33.366045 0.462042
2011-02-15 06:16:18 51°15.322 2°54.03 6.6201 3.378822 33.366713 0.462042
2011-02-15 06:16:22 51°15.333 2°54.015 6.6197 3.376925 33.348398 0.53169
2011-02-15 06:16:28 51°15.35 2°53.994 6.6325 3.37292 33.311931 0.427218
2011-02-15 06:16:33 51°15.364 2°53.975 6.6317 3.37292 33.311931 0.427218
2011-02-15 06:16:38 51°15.377 2°53.955 6.6169 3.372709 33.317054 0.427218
2011-02-15 06:16:43 51°15.391 2°53.936 6.6173 3.370179 33.295927 0.53169
2011-02-15 06:16:48 51°15.405 2°53.918 6.6032 3.371233 33.309962 0.496866
2011-02-15 06:16:53 51°15.419 2°53.9 6.6065 3.370495 33.307654 0.601338
2011-02-15 06:16:58 51°15.433 2°53.882 6.5904 3.357847 33.179678 0.462042
2011-02-15 06:17:02 51°15.444 2°53.867 6.6017 3.357847 33.179678 0.462042
2011-02-15 06:17:08 51°15.461 2°53.845 6.5937 3.367966 33.289823 0.462042
2011-02-15 06:17:13 51°15.476 2°53.828 6.5799 3.371128 33.324511 0.53169
2011-02-15 06:17:18 51°15.49 2°53.809 6.5882 3.368282 33.304862 0.53169
2011-02-15 06:17:23 51°15.503 2°53.791 6.5934 3.375028 33.381383 0.462042
2011-02-15 06:17:28 51°15.517 2°53.772 6.5765 3.368388 33.319253 0.496866
2011-02-15 06:17:33 51°15.531 2°53.753 6.5806 3.368388 33.319253 0.496866
2011-02-15 06:17:38 51°15.544 2°53.733 6.5986 3.367334 33.312647 0.462042
2011-02-15 06:17:42 51°15.555 2°53.718 6.583 3.37545 33.404258 0.462042
2011-02-15 06:17:48 51°15.571 2°53.694 6.5932 3.367123 33.320265 0.462042
2011-02-15 06:17:53 51°15.584 2°53.675 6.5668 3.376504 33.433278 0.462042
2011-02-15 06:17:58 51°15.598 2°53.655 6.574 3.378085 33.452318 0.566514
2011-02-15 06:18:02 51°15.609 2°53.64 6.5789 3.378085 33.452318 0.566514
2011-02-15 06:18:08 51°15.625 2°53.617 6.5803 3.375661 33.428166 0.496866
2011-02-15 06:18:13 51°15.639 2°53.599 6.568 3.375134 33.423204 0.496866
2011-02-15 06:18:18 51°15.653 2°53.581 6.5798 3.377558 33.451515 0.462042
2011-02-15 06:18:23 51°15.667 2°53.563 6.5746 3.375977 33.431641 0.427218
2011-02-15 06:18:28 51°15.681 2°53.545 6.5729 3.375767 33.435143 0.53169
2011-02-15 06:18:33 51°15.695 2°53.527 6.5763 3.375767 33.435143 0.53169
2011-02-15 06:18:38 51°15.71 2°53.511 6.575 3.378402 33.467441 0.496866
2011-02-15 06:18:42 51°15.722 2°53.498 6.576 3.377032 33.453207 0.427218
2011-02-15 06:18:48 51°15.74 2°53.48 6.5727 3.376821 33.454217 0.496866
2011-02-15 06:18:53 51°15.756 2°53.467 6.5663 3.377032 33.459032 0.462042
2011-02-15 06:18:58 51°15.772 2°53.454 6.563 3.381986 33.512684 0.427218
2011-02-15 06:19:03 51°15.789 2°53.443 6.5652 3.381986 33.512684 0.427218
2011-02-15 06:19:08 51°15.805 2°53.432 6.5674 3.381248 33.507902 0.427218
2011-02-15 06:19:13 51°15.822 2°53.421 6.5684 3.377769 33.470476 0.53169
2011-02-15 06:19:18 51°15.838 2°53.412 6.5689 3.380299 33.501634 0.427218
2011-02-15 06:19:22 51°15.852 2°53.404 6.5575 3.380405 33.502794 0.427218
2011-02-15 06:19:28 51°15.872 2°53.391 6.5505 3.380932 33.506924 0.462042
2011-02-15 06:19:33 51°15.889 2°53.381 6.5552 3.380932 33.506924 0.462042
2011-02-15 06:19:38 51°15.905 2°53.37 6.5553 3.384094 33.54839 0.462042
2011-02-15 06:19:42 51°15.918 2°53.361 6.5522 3.385148 33.560825 0.53169
2011-02-15 06:19:48 51°15.937 2°53.345 6.5439 3.385148 33.562495 0.496866
2011-02-15 06:19:53 51°15.954 2°53.333 6.5452 3.384516 33.555535 0.427218
2011-02-15 06:19:58 51°15.97 2°53.321 6.5449 3.384516 33.55971 0.462042
2011-02-15 06:20:02 51°15.983 2°53.31 6.548 3.384516 33.55971 0.462042
2011-02-15 06:20:08 51°16.002 2°53.295 6.5413 3.384938 33.5702 0.496866
2011-02-15 06:20:13 51°16.018 2°53.283 6.5442 3.38673 33.592437 0.427218
2011-02-15 06:20:18 51°16.034 2°53.271 6.5387 3.3881 33.611709 0.427218
2011-02-15 06:20:22 51°16.047 2°53.261 6.5339 3.387784 33.613249 0.392394
2011-02-15 06:20:28 51°16.067 2°53.248 6.5337 3.389049 33.629694 0.392394
2011-02-15 06:20:33 51°16.083 2°53.237 6.5383 3.389049 33.629694 0.392394
2011-02-15 06:20:38 51°16.1 2°53.225 6.5317 3.388206 33.624592 0.427218
2011-02-15 06:20:42 51°16.113 2°53.215 6.5178 3.388522 33.628913 0.53169
2011-02-15 06:20:48 51°16.132 2°53.202 6.5114 3.389049 33.637233 0.462042
2011-02-15 06:20:53 51°16.149 2°53.19 6.5128 3.388627 33.633426 0.392394
2011-02-15 06:20:58 51°16.165 2°53.178 6.507 3.38926 33.642071 0.427218
2011-02-15 06:21:03 51°16.182 2°53.166 6.5 3.38926 33.642071 0.427218
2011-02-15 06:21:08 51°16.198 2°53.154 6.4984 3.389681 33.650909 0.427218
2011-02-15 06:21:13 51°16.213 2°53.141 6.4929 3.389154 33.645939 0.496866
2011-02-15 06:21:18 51°16.229 2°53.128 6.4918 3.390209 33.660911 0.427218
2011-02-15 06:21:23 51°16.245 2°53.116 6.4877 3.390209 33.664267 0.53169
2011-02-15 06:21:28 51°16.262 2°53.103 6.4835 3.390525 33.676986 0.427218
2011-02-15 06:21:33 51°16.278 2°53.091 6.4881 3.390525 33.676986 0.427218
2011-02-15 06:21:38 51°16.294 2°53.078 6.484 3.389155 33.667752 0.462042
2011-02-15 06:21:42 51°16.307 2°53.068 6.4851 3.388838 33.668462 0.427218
2011-02-15 06:21:48 51°16.326 2°53.052 6.483 3.389471 33.681318 0.427218
2011-02-15 06:21:53 51°16.342 2°53.04 6.4861 3.389471 33.683838 0.462042
2011-02-15 06:21:58 51°16.358 2°53.028 6.5003 3.388839 33.682743 0.496866
2011-02-15 06:22:02 51°16.371 2°53.018 6.4835 3.388839 33.682743 0.496866
2011-02-15 06:22:08 51°16.391 2°53.004 6.4818 3.389366 33.693602 0.392394
2011-02-15 06:22:13 51°16.407 2°52.992 6.4814 3.388628 33.687981 0.462042
2011-02-15 06:22:18 51°16.423 2°52.979 6.4772 3.388312 33.687014 0.462042
2011-02-15 06:22:22 51°16.436 2°52.969 6.4828 3.388733 33.695031 0.392394
2011-02-15 06:22:28 51°16.456 2°52.955 6.4787 3.388944 33.6982 0.462042
2011-02-15 06:22:33 51°16.472 2°52.942 6.4814 3.388944 33.6982 0.462042
2011-02-15 06:22:38 51°16.488 2°52.93 6.4876 3.38905 33.695999 0.427218
2011-02-15 06:22:43 51°16.504 2°52.917 6.4773 3.389471 33.702335 0.427218
2011-02-15 06:22:48 51°16.52 2°52.904 6.4863 3.38905 33.701887 0.496866
2011-02-15 06:22:53 51°16.536 2°52.892 6.4736 3.38926 33.702532 0.322746
2011-02-15 06:22:58 51°16.552 2°52.879 6.474 3.389787 33.712558 0.462042
2011-02-15 06:23:02 51°16.565 2°52.869 6.4796 3.389787 33.712558 0.462042
2011-02-15 06:23:08 51°16.584 2°52.853 6.4782 3.389682 33.711394 0.392394
2011-02-15 06:23:13 51°16.6 2°52.84 6.4799 3.389577 33.71023 0.427218
2011-02-15 06:23:18 51°16.615 2°52.827 6.4798 3.390947 33.726202 0.496866
2011-02-15 06:23:23 51°16.631 2°52.814 6.4781 3.391263 33.731378 0.427218
2011-02-15 06:23:28 51°16.647 2°52.802 6.4765 3.391263 33.73222 0.427218
2011-02-15 06:23:33 51°16.663 2°52.789 6.4739 3.391263 33.73222 0.427218
2011-02-15 06:23:38 51°16.679 2°52.776 6.4736 3.390947 33.73294 0.496866
2011-02-15 06:23:43 51°16.695 2°52.764 6.4776 3.39179 33.743938 0.462042
2011-02-15 06:23:48 51°16.71 2°52.751 6.4746 3.390736 33.728927 0.462042
2011-02-15 06:23:53 51°16.726 2°52.738 6.4745 3.392107 33.746588 0.427218
2011-02-15 06:23:58 51°16.742 2°52.726 6.4722 3.392423 33.750081 0.462042
2011-02-15 06:24:02 51°16.755 2°52.717 6.47 3.392423 33.750081 0.462042
2011-02-15 06:24:08 51°16.775 2°52.704 6.4782 3.392107 33.745746 0.53169
2011-02-15 06:24:13 51°16.791 2°52.694 6.4722 3.39179 33.743938 0.566514
2011-02-15 06:24:18 51°16.808 2°52.685 6.4719 3.391685 33.742774 0.496866
2011-02-15 06:24:22 51°16.821 2°52.677 6.4737 3.394109 33.77124 0.462042
2011-02-15 06:24:28 51°16.84 2°52.664 6.469 3.393055 33.761282 0.636162
2011-02-15 06:24:33 51°16.857 2°52.655 6.4624 3.393055 33.761282 0.636162
2011-02-15 06:24:38 51°16.873 2°52.644 6.4647 3.393161 33.76329 0.462042
2011-02-15 06:24:42 51°16.886 2°52.635 6.4597 3.393266 33.764455 0.601338
2011-02-15 06:24:48 51°16.905 2°52.623 6.4594 3.392739 33.758632 0.496866
2011-02-15 06:24:53 51°16.921 2°52.611 6.4604 3.393688 33.769113 0.496866
2011-02-15 06:24:58 51°16.937 2°52.599 6.4593 3.393372 33.767306 0.496866
2011-02-15 06:25:03 51°16.953 2°52.587 6.4591 3.393372 33.767306 0.496866
2011-02-15 06:25:08 51°16.969 2°52.574 6.4598 3.393372 33.768149 0.566514
2011-02-15 06:25:13 51°16.985 2°52.562 6.4608 3.393583 33.774697 0.636162
2011-02-15 06:25:18 51°17.001 2°52.55 6.4575 3.392634 33.768433 0.427218
2011-02-15 06:25:23 51°17.017 2°52.539 6.4627 3.392318 33.764939 0.601338
2011-02-15 06:25:28 51°17.033 2°52.529 6.4552 3.393161 33.777633 0.462042
2011-02-15 06:25:33 51°17.05 2°52.52 6.4683 3.393161 33.777633 0.462042
2011-02-15 06:25:38 51°17.067 2°52.511 6.4688 3.392634 33.772652 0.566514
2011-02-15 06:25:42 51°17.08 2°52.506 6.464 3.393372 33.782496 0.636162
2011-02-15 06:25:48 51°17.101 2°52.499 6.4554 3.393688 33.786835 0.636162
2011-02-15 06:25:53 51°17.118 2°52.495 6.4571 3.393266 33.779642 0.70581
2011-02-15 06:25:58 51°17.135 2°52.492 6.4513 3.39295 33.776147 0.601338
2011-02-15 06:26:03 51°17.152 2°52.49 6.4524 3.39295 33.776147 0.601338
2011-02-15 06:26:08 51°17.17 2°52.49 6.4537 3.394215 33.789283 0.636162
2011-02-15 06:26:13 51°17.188 2°52.489 6.4603 3.393372 33.779119 0.601338
2011-02-15 06:26:18 51°17.205 2°52.488 6.4561 3.394426 33.786547 0.636162
2011-02-15 06:26:22 51°17.219 2°52.488 6.4558 3.393899 33.7841 0.636162
2011-02-15 06:26:28 51°17.24 2°52.488 6.4532 3.394637 33.793099 0.740634
2011-02-15 06:26:33 51°17.257 2°52.488 6.4511 3.394637 33.793099 0.740634
2011-02-15 06:26:38 51°17.275 2°52.488 6.4533 3.395375 33.802943 0.636162
2011-02-15 06:26:42 51°17.289 2°52.487 6.4542 3.395902 33.814684 0.810283
2011-02-15 06:26:48 51°17.31 2°52.486 6.4505 3.397694 33.834496 0.670986
2011-02-15 06:26:53 51°17.327 2°52.485 6.4612 3.397588 33.83164 0.636162
2011-02-15 06:26:58 51°17.345 2°52.485 6.4537 3.397588 33.834177 0.775459
2011-02-15 06:27:02 51°17.359 2°52.483 6.4505 3.397588 33.834177 0.775459
2011-02-15 06:27:08 51°17.38 2°52.481 6.4517 3.397799 33.839045 0.740634
2011-02-15 06:27:13 51°17.397 2°52.479 6.4595 3.39801 33.843068 0.70581
2011-02-15 06:27:18 51°17.415 2°52.478 6.4509 3.39801 33.84053 0.70581
2011-02-15 06:27:23 51°17.432 2°52.477 6.4584 3.398115 33.845926 0.879931
2011-02-15 06:27:28 51°17.45 2°52.476 6.4543 3.398537 33.849743 0.70581
2011-02-15 06:27:33 51°17.467 2°52.475 6.4597 3.398537 33.849743 0.70581
2011-02-15 06:27:38 51°17.485 2°52.474 6.4582 3.398221 33.846246 0.845107
2011-02-15 06:27:43 51°17.502 2°52.473 6.4527 3.398537 33.851435 0.775459
2011-02-15 06:27:48 51°17.52 2°52.472 6.4537 3.398537 33.850589 0.636162
2011-02-15 06:27:53 51°17.537 2°52.471 6.4491 3.398853 33.854086 0.810283
2011-02-15 06:27:58 51°17.555 2°52.469 6.4473 3.398748 33.854613 0.810283
2011-02-15 06:28:02 51°17.568 2°52.468 6.4496 3.398748 33.854613 0.810283
2011-02-15 06:28:08 51°17.589 2°52.467 6.4492 3.39917 33.857584 0.845107
2011-02-15 06:28:13 51°17.607 2°52.466 6.4457 3.399275 33.85621 0.984403
2011-02-15 06:28:18 51°17.624 2°52.464 6.4543 3.399275 33.85621 0.810283
2011-02-15 06:28:23 51°17.641 2°52.464 6.4523 3.399275 33.855364 0.879931
2011-02-15 06:28:28 51°17.659 2°52.463 6.4496 3.399591 33.862247 0.810283
2011-02-15 06:28:33 51°17.676 2°52.462 6.4527 3.399591 33.862247 0.810283
2011-02-15 06:28:38 51°17.694 2°52.461 6.449 3.399591 33.865633 0.740634
2011-02-15 06:28:42 51°17.708 2°52.46 6.4514 3.39917 33.862663 0.810283
2011-02-15 06:28:48 51°17.729 2°52.458 6.4492 3.399486 33.867855 1.019227
2011-02-15 06:28:53 51°17.747 2°52.457 6.4478 3.399064 33.863191 0.775459
2011-02-15 06:28:58 51°17.764 2°52.455 6.4523 3.398853 33.858319 0.845107
2011-02-15 06:29:03 51°17.781 2°52.454 6.4524 3.398853 33.858319 0.845107
2011-02-15 06:29:08 51°17.799 2°52.452 6.451 3.398748 33.857153 0.879931
2011-02-15 06:29:13 51°17.816 2°52.451 6.4533 3.398748 33.857153 0.740634
2011-02-15 06:29:18 51°17.834 2°52.449 6.4499 3.398537 33.855668 0.740634
2011-02-15 06:29:23 51°17.851 2°52.447 6.4514 3.398326 33.854182 0.775459
2011-02-15 06:29:28 51°17.869 2°52.446 6.4514 3.398221 33.85471 0.879931
2011-02-15 06:29:33 51°17.886 2°52.445 6.45 3.398221 33.85471 0.879931
2011-02-15 06:29:38 51°17.904 2°52.443 6.4479 3.398116 33.853544 0.636162
2011-02-15 06:29:42 51°17.918 2°52.442 6.4489 3.39801 33.850685 0.70581
2011-02-15 06:29:48 51°17.938 2°52.441 6.4515 3.397799 33.848353 0.914755
2011-02-15 06:29:53 51°17.956 2°52.44 6.4571 3.397694 33.847187 0.70581
2011-02-15 06:29:58 51°17.973 2°52.439 6.4521 3.397799 33.847506 0.810283
2011-02-15 06:30:03 51°17.991 2°52.437 6.4514 3.397799 33.847506 0.810283
2011-02-15 06:30:08 51°18.008 2°52.436 6.4553 3.397588 33.846021 0.740634
2011-02-15 06:30:13 51°18.026 2°52.434 6.4538 3.397378 33.845382 0.70581
2011-02-15 06:30:18 51°18.043 2°52.433 6.4543 3.397272 33.845062 0.845107
2011-02-15 06:30:22 51°18.057 2°52.431 6.4571 3.397378 33.845382 0.949579
2011-02-15 06:30:28 51°18.078 2°52.43 6.4575 3.396956 33.839872 0.914755
2011-02-15 06:30:33 51°18.096 2°52.428 6.4572 3.396956 33.839872 0.914755
2011-02-15 06:30:38 51°18.113 2°52.427 6.4567 3.396956 33.839026 0.845107
2011-02-15 06:30:43 51°18.131 2°52.425 6.4547 3.396956 33.839872 0.984403
2011-02-15 06:30:48 51°18.148 2°52.423 6.4502 3.396956 33.83818 0.845107
2011-02-15 06:30:53 51°18.166 2°52.421 6.4478 3.397061 33.840192 1.019227
2011-02-15 06:30:58 51°18.183 2°52.419 6.4451 3.397061 33.838499 0.914755
2011-02-15 06:31:02 51°18.197 2°52.417 6.4482 3.397061 33.838499 0.914755
2011-02-15 06:31:08 51°18.218 2°52.415 6.4556 3.396745 33.835848 0.984403
2011-02-15 06:31:13 51°18.236 2°52.413 6.4497 3.396745 33.835002 0.879931
2011-02-15 06:31:18 51°18.253 2°52.411 6.4531 3.396956 33.83818 0.949579
2011-02-15 06:31:23 51°18.271 2°52.41 6.448 3.397061 33.839345 0.914755
2011-02-15 06:31:28 51°18.288 2°52.409 6.4554 3.396851 33.838706 0.949579
2011-02-15 06:31:33 51°18.306 2°52.407 6.4554 3.396851 33.838706 0.949579
2011-02-15 06:31:38 51°18.323 2°52.405 6.4485 3.396745 33.838386 0.775459
2011-02-15 06:31:43 51°18.341 2°52.404 6.4547 3.396956 33.844104 0.775459
2011-02-15 06:31:48 51°18.358 2°52.402 6.451 3.396429 33.838273 0.984403
2011-02-15 06:31:53 51°18.375 2°52.401 6.4494 3.396851 33.840398 0.810283
2011-02-15 06:31:58 51°18.393 2°52.4 6.4477 3.396851 33.841245 1.019227
2011-02-15 06:32:02 51°18.407 2°52.398 6.445 3.396851 33.841245 1.019227
2011-02-15 06:32:08 51°18.428 2°52.396 6.4508 3.396851 33.840398 0.810283
2011-02-15 06:32:13 51°18.446 2°52.395 6.4439 3.396534 33.835208 0.845107
2011-02-15 06:32:18 51°18.463 2°52.394 6.4466 3.396007 33.831071 0.949579
2011-02-15 06:32:23 51°18.48 2°52.392 6.447 3.396113 33.831391 0.984403
2011-02-15 06:32:28 51°18.498 2°52.39 6.4438 3.396007 33.831917 0.914755
2011-02-15 06:32:33 51°18.515 2°52.388 6.4427 3.396007 33.831917 0.914755
2011-02-15 06:32:38 51°18.533 2°52.386 6.4451 3.396218 33.835095 0.914755
2011-02-15 06:32:42 51°18.547 2°52.384 6.4431 3.395902 33.832443 1.019227
2011-02-15 06:32:48 51°18.568 2°52.382 6.442 3.397062 33.846963 0.949579
2011-02-15 06:32:53 51°18.585 2°52.38 6.4401 3.396956 33.846643 1.019227
2011-02-15 06:32:58 51°18.603 2°52.377 6.4449 3.39664 33.843991 0.949579
2011-02-15 06:33:03 51°18.62 2°52.375 6.447 3.39664 33.843991 0.949579
2011-02-15 06:33:08 51°18.638 2°52.372 6.4513 3.396745 33.845157 0.914755
2011-02-15 06:33:13 51°18.655 2°52.37 6.4471 3.396745 33.847697 0.984403
2011-02-15 06:33:18 51°18.673 2°52.368 6.446 3.396429 33.844198 1.019227
2011-02-15 06:33:23 51°18.69 2°52.367 6.4493 3.396745 33.847697 1.019227
2011-02-15 06:33:28 51°18.708 2°52.365 6.4466 3.396534 33.845365 0.914755
2011-02-15 06:33:33 51°18.725 2°52.363 6.4503 3.396534 33.845365 0.914755
2011-02-15 06:33:38 51°18.743 2°52.361 6.4414 3.396851 33.850557 1.019227
2011-02-15 06:33:42 51°18.757 2°52.36 6.4463 3.396535 33.846211 0.845107
2011-02-15 06:33:48 51°18.778 2°52.357 6.4438 3.396534 33.843672 0.914755
2011-02-15 06:33:53 51°18.795 2°52.355 6.4457 3.397272 33.850988 1.123699
2011-02-15 06:33:58 51°18.813 2°52.353 6.4519 3.397167 33.851515 1.054051
2011-02-15 06:34:03 51°18.831 2°52.351 6.4464 3.397167 33.851515 1.054051
2011-02-15 06:34:08 51°18.848 2°52.349 6.4442 3.397167 33.848975 1.019227
2011-02-15 06:34:13 51°18.866 2°52.347 6.4445 3.397483 33.852474 0.914755
2011-02-15 06:34:18 51°18.883 2°52.344 6.4496 3.397799 33.858513 1.193347
2011-02-15 06:34:22 51°18.897 2°52.343 6.4411 3.397272 33.853528 0.914755
2011-02-15 06:34:28 51°18.918 2°52.34 6.4431 3.397799 33.85936 0.984403
2011-02-15 06:34:33 51°18.936 2°52.338 6.442 3.397799 33.85936 0.984403
2011-02-15 06:34:38 51°18.953 2°52.336 6.4467 3.397905 33.858832 1.228171
2011-02-15 06:34:43 51°18.971 2°52.333 6.4448 3.398116 33.861165 1.019227
2011-02-15 06:34:48 51°18.988 2°52.331 6.4448 3.398221 33.864872 1.123699
2011-02-15 06:34:53 51°19.005 2°52.329 6.4428 3.398643 33.869537 1.123699
2011-02-15 06:34:58 51°19.023 2°52.327 6.4446 3.398537 33.869218 0.984403
2011-02-15 06:35:02 51°19.037 2°52.325 6.4457 3.398537 33.869218 0.984403
2011-02-15 06:35:08 51°19.058 2°52.322 6.4505 3.398748 33.871551 0.949579
2011-02-15 06:35:13 51°19.075 2°52.32 6.449 3.398854 33.872717 0.984403
2011-02-15 06:35:18 51°19.093 2°52.318 6.4469 3.398959 33.873884 0.984403
2011-02-15 06:35:23 51°19.11 2°52.315 6.4503 3.398748 33.870704 1.054051
2011-02-15 06:35:28 51°19.128 2°52.313 6.4499 3.399275 33.876536 1.158523
2011-02-15 06:35:33 51°19.145 2°52.311 6.4469 3.399275 33.876536 1.158523
2011-02-15 06:35:38 51°19.162 2°52.309 6.4476 3.39917 33.877064 1.019227
2011-02-15 06:35:43 51°19.18 2°52.306 6.4446 3.399908 33.884382 1.054051
2011-02-15 06:35:48 51°19.197 2°52.304 6.4433 3.399486 33.878868 1.054051
2011-02-15 06:35:53 51°19.215 2°52.302 6.4442 3.399802 33.880673 1.019227
2011-02-15 06:35:58 51°19.232 2°52.3 6.4474 3.400013 33.883005 1.123699
2011-02-15 06:36:02 51°19.246 2°52.298 6.4469 3.400013 33.883005 1.123699
2011-02-15 06:36:08 51°19.267 2°52.296 6.4446 3.400013 33.883005 0.984403
2011-02-15 06:36:13 51°19.285 2°52.294 6.4478 3.399802 33.880673 1.123699
2011-02-15 06:36:18 51°19.302 2°52.291 6.4506 3.400224 33.884491 0.984403
2011-02-15 06:36:23 51°19.32 2°52.288 6.4477 3.400646 33.890852 1.088875
2011-02-15 06:36:28 51°19.337 2°52.286 6.4467 3.400435 33.890214 1.088875
2011-02-15 06:36:33 51°19.355 2°52.284 6.4506 3.400435 33.890214 1.088875
2011-02-15 06:36:38 51°19.372 2°52.282 6.4497 3.400646 33.891699 0.949579
2011-02-15 06:36:42 51°19.386 2°52.28 6.4546 3.400329 33.887352 1.123699
2011-02-15 06:36:48 51°19.407 2°52.277 6.4532 3.400646 33.891699 1.158523
2011-02-15 06:36:53 51°19.424 2°52.277 6.4578 3.400646 33.890852 1.088875
2011-02-15 06:36:58 51°19.442 2°52.277 6.4557 3.400751 33.890322 1.088875
2011-02-15 06:37:03 51°19.459 2°52.277 6.4553 3.400751 33.890322 1.088875
2011-02-15 06:37:08 51°19.477 2°52.277 6.4546 3.401278 33.896154 1.019227
2011-02-15 06:37:13 51°19.494 2°52.277 6.4558 3.401278 33.897002 1.123699
2011-02-15 06:37:18 51°19.511 2°52.277 6.4559 3.4017 33.901668 1.088875
2011-02-15 06:37:23 51°19.529 2°52.278 6.4558 3.401489 33.897639 1.088875
2011-02-15 06:37:28 51°19.546 2°52.278 6.4531 3.4017 33.895733 1.158523
2011-02-15 06:37:33 51°19.564 2°52.279 6.4535 3.4017 33.895733 1.158523
2011-02-15 06:37:38 51°19.581 2°52.279 6.4524 3.4017 33.895733 1.054051
2011-02-15 06:37:42 51°19.595 2°52.28 6.4529 3.4017 33.895733 1.088875
2011-02-15 06:37:48 51°19.616 2°52.28 6.4554 3.402016 33.898384 1.088875
2011-02-15 06:37:53 51°19.634 2°52.28 6.4564 3.40191 33.898066 1.193347
2011-02-15 06:37:58 51°19.652 2°52.281 6.4577 3.402227 33.900717 1.088875
2011-02-15 06:38:03 51°19.669 2°52.281 6.457 3.402227 33.900717 1.088875
2011-02-15 06:38:08 51°19.687 2°52.282 6.4573 3.402121 33.901246 1.019227
2011-02-15 06:38:13 51°19.704 2°52.282 6.4579 3.402438 33.904745 1.158523
2011-02-15 06:38:18 51°19.722 2°52.283 6.4574 3.402332 33.905275 1.123699
2011-02-15 06:38:22 51°19.736 2°52.283 6.4574 3.402332 33.905275 1.158523
2011-02-15 06:38:28 51°19.757 2°52.283 6.453 3.402648 33.907926 1.019227
2011-02-15 06:38:33 51°19.774 2°52.284 6.4577 3.402648 33.907926 1.019227
2011-02-15 06:38:38 51°19.792 2°52.284 6.4574 3.402438 33.904745 1.088875
2011-02-15 06:38:43 51°19.81 2°52.285 6.4577 3.402227 33.900717 1.123699
2011-02-15 06:38:48 51°19.827 2°52.284 6.457 3.402754 33.906548 1.054051
2011-02-15 06:38:53 51°19.845 2°52.285 6.4595 3.402332 33.902731 1.193347
2011-02-15 06:38:58 51°19.863 2°52.285 6.4521 3.402648 33.90623 1.088875
2011-02-15 06:39:02 51°19.877 2°52.285 6.4545 3.402648 33.90623 1.088875
2011-02-15 06:39:08 51°19.898 2°52.286 6.4542 3.40307 33.910895 1.123699
2011-02-15 06:39:13 51°19.915 2°52.286 6.452 3.402965 33.910577 1.054051
2011-02-15 06:39:18 51°19.933 2°52.287 6.4525 3.403281 33.913228 1.088875
2011-02-15 06:39:23 51°19.951 2°52.287 6.4531 3.402965 33.909729 1.088875
2011-02-15 06:39:28 51°19.968 2°52.287 6.4555 3.403386 33.912698 1.123699
2011-02-15 06:39:33 51°19.986 2°52.287 6.4513 3.403386 33.912698 1.123699
2011-02-15 06:39:38 51°20.003 2°52.288 6.4531 3.403281 33.91238 1.088875
2011-02-15 06:39:43 51°20.021 2°52.289 6.4514 3.403386 33.915242 1.123699
2011-02-15 06:39:48 51°20.039 2°52.289 6.4528 3.403281 33.914076 1.158523
2011-02-15 06:39:53 51°20.056 2°52.288 6.4483 3.403281 33.916621 1.054051
2011-02-15 06:39:58 51°20.074 2°52.288 6.449 3.403175 33.915454 1.123699
2011-02-15 06:40:02 51°20.088 2°52.288 6.4547 3.403175 33.915454 1.123699
2011-02-15 06:40:08 51°20.109 2°52.288 6.4514 3.403492 33.918954 1.158523
2011-02-15 06:40:13 51°20.127 2°52.288 6.4473 3.403808 33.922453 1.123699
2011-02-15 06:40:18 51°20.145 2°52.288 6.4499 3.403386 33.916939 1.158523
2011-02-15 06:40:23 51°20.162 2°52.287 6.4474 3.403281 33.917469 1.088875
2011-02-15 06:40:28 51°20.18 2°52.288 6.4522 3.403808 33.921605 1.193347
2011-02-15 06:40:33 51°20.197 2°52.289 6.4476 3.403808 33.921605 1.193347
2011-02-15 06:40:38 51°20.215 2°52.289 6.4469 3.40423 33.929665 1.228171
2011-02-15 06:40:42 51°20.229 2°52.29 6.4479 3.403492 33.919802 1.088875
2011-02-15 06:40:48 51°20.25 2°52.291 6.448 3.403703 33.922984 1.193347
2011-02-15 06:40:53 51°20.268 2°52.292 6.4519 3.404335 33.931681 1.088875
2011-02-15 06:40:58 51°20.286 2°52.294 6.4476 3.403703 33.924681 1.054051
2011-02-15 06:41:03 51°20.303 2°52.296 6.4493 3.403703 33.924681 1.054051
2011-02-15 06:41:08 51°20.321 2°52.299 6.4442 3.404546 33.934014 1.158523
2011-02-15 06:41:13 51°20.338 2°52.303 6.4456 3.404124 33.92765 1.088875
2011-02-15 06:41:18 51°20.356 2°52.306 6.4416 3.404651 33.936879 1.088875
2011-02-15 06:41:23 51°20.373 2°52.309 6.4404 3.404757 33.937196 1.193347
2011-02-15 06:41:28 51°20.391 2°52.312 6.4414 3.40444 33.933696 1.088875
2011-02-15 06:41:33 51°20.408 2°52.316 6.4409 3.40444 33.933696 1.088875
2011-02-15 06:41:38 51°20.426 2°52.319 6.4414 3.404968 33.93953 1.019227
2011-02-15 06:41:42 51°20.44 2°52.322 6.4412 3.404968 33.938681 0.984403
2011-02-15 06:41:48 51°20.461 2°52.327 6.438 3.404968 33.93953 1.193347
2011-02-15 06:41:53 51°20.479 2°52.331 6.4408 3.405073 33.940696 1.193347
2011-02-15 06:41:58 51°20.496 2°52.334 6.4428 3.404968 33.943775 1.123699
2011-02-15 06:42:03 51°20.513 2°52.337 6.4437 3.404968 33.943775 1.123699
2011-02-15 06:42:08 51°20.531 2°52.34 6.4404 3.4056 33.951626 1.158523
2011-02-15 06:42:13 51°20.548 2°52.344 6.4366 3.405073 33.944093 1.193347
2011-02-15 06:42:18 51°20.565 2°52.347 6.4399 3.405389 33.948443 1.019227
2011-02-15 06:42:22 51°20.579 2°52.35 6.4391 3.405178 33.946958 1.054051
2011-02-15 06:42:28 51°20.6 2°52.354 6.4365 3.405284 33.948975 1.123699
2011-02-15 06:42:33 51°20.617 2°52.358 6.4367 3.405284 33.948975 1.123699
2011-02-15 06:42:38 51°20.635 2°52.362 6.4324 3.404968 33.944625 1.019227
2011-02-15 06:42:43 51°20.652 2°52.366 6.4373 3.405284 33.948125 1.054051
2011-02-15 06:42:48 51°20.67 2°52.37 6.4333 3.405073 33.944942 1.193347
2011-02-15 06:42:53 51°20.688 2°52.373 6.4341 3.404862 33.943458 1.019227
2011-02-15 06:42:58 51°20.705 2°52.377 6.4328 3.405389 33.950142 1.123699
2011-02-15 06:43:02 51°20.719 2°52.379 6.4342 3.405389 33.950142 1.123699
2011-02-15 06:43:08 51°20.74 2°52.382 6.43 3.405073 33.946641 1.158523
2011-02-15 06:43:13 51°20.758 2°52.385 6.4318 3.405389 33.951841 1.123699
2011-02-15 06:43:18 51°20.775 2°52.388 6.4339 3.405073 33.950039 1.123699
2011-02-15 06:43:23 51°20.793 2°52.392 6.4301 3.405495 33.953857 1.123699
2011-02-15 06:43:28 51°20.81 2°52.395 6.4333 3.4056 33.958423 1.019227
2011-02-15 06:43:33 51°20.827 2°52.397 6.4286 3.4056 33.958423 1.019227
2011-02-15 06:43:38 51°20.845 2°52.4 6.427 3.405495 33.954707 1.158523
2011-02-15 06:43:43 51°20.863 2°52.403 6.4314 3.406127 33.965109 1.054051
2011-02-15 06:43:48 51°20.88 2°52.406 6.4293 3.405811 33.963308 1.088875
2011-02-15 06:43:53 51°20.898 2°52.409 6.4268 3.4056 33.960973 1.158523
2011-02-15 06:43:58 51°20.915 2°52.411 6.4229 3.406127 33.96766 1.158523
2011-02-15 06:44:02 51°20.929 2°52.413 6.4175 3.406127 33.96766 1.158523
2011-02-15 06:44:08 51°20.95 2°52.416 6.4185 3.405811 33.964158 1.088875
2011-02-15 06:44:13 51°20.968 2°52.419 6.4175 3.406127 33.96851 0.984403
2011-02-15 06:44:18 51°20.985 2°52.422 6.4142 3.406233 33.972228 1.123699
2011-02-15 06:44:22 51°20.999 2°52.424 6.4152 3.406549 33.976581 1.123699
2011-02-15 06:44:28 51°21.021 2°52.427 6.4129 3.406549 33.977431 1.088875
2011-02-15 06:44:33 51°21.038 2°52.43 6.411 3.406549 33.977431 1.088875
2011-02-15 06:44:38 51°21.056 2°52.433 6.4071 3.406549 33.979132 1.088875
2011-02-15 06:44:42 51°21.07 2°52.435 6.4052 3.406971 33.984654 1.054051
2011-02-15 06:44:48 51°21.091 2°52.438 6.4089 3.406865 33.98774 1.123699
2011-02-15 06:44:53 51°21.109 2°52.44 6.4022 3.406654 33.986256 1.158523
2011-02-15 06:44:58 51°21.126 2°52.443 6.4013 3.40676 33.989126 1.019227
2011-02-15 06:45:03 51°21.144 2°52.446 6.406 3.40676 33.989126 1.019227
2011-02-15 06:45:08 51°21.162 2°52.449 6.4044 3.406971 33.994866 1.019227
2011-02-15 06:45:13 51°21.18 2°52.451 6.4026 3.407182 33.999757 1.088875
2011-02-15 06:45:18 51°21.197 2°52.453 6.4038 3.407182 34.000608 0.984403
2011-02-15 06:45:23 51°21.215 2°52.455 6.4008 3.406655 33.996471 1.054051
2011-02-15 06:45:28 51°21.233 2°52.459 6.4005 3.406971 34.003382 0.914755
2011-02-15 06:45:33 51°21.251 2°52.463 6.405 3.406971 34.003382 0.914755
2011-02-15 06:45:38 51°21.268 2°52.466 6.41 3.406655 34.003284 1.088875
2011-02-15 06:45:42 51°21.282 2°52.469 6.4047 3.406971 34.005937 1.088875
2011-02-15 06:45:48 51°21.304 2°52.472 6.406 3.406655 34.003284 1.019227
2011-02-15 06:45:53 51°21.321 2°52.476 6.4029 3.406549 34.002968 1.054051
2011-02-15 06:45:58 51°21.339 2°52.48 6.3983 3.406444 34.002651 0.949579
2011-02-15 06:46:03 51°21.356 2°52.483 6.3952 3.406444 34.002651 0.949579
2011-02-15 06:46:08 51°21.374 2°52.486 6.3905 3.404968 33.986294 1.054051
2011-02-15 06:46:13 51°21.391 2°52.488 6.3929 3.406338 34.000631 0.949579
2011-02-15 06:46:18 51°21.409 2°52.491 6.3926 3.405811 33.993937 0.914755
2011-02-15 06:46:22 51°21.423 2°52.492 6.3923 3.405601 33.990749 1.019227
2011-02-15 06:46:28 51°21.444 2°52.495 6.394 3.406338 33.998927 1.088875
2011-02-15 06:46:33 51°21.462 2°52.497 6.3943 3.406338 33.998927 1.088875
2011-02-15 06:46:38 51°21.48 2°52.5 6.3923 3.405601 33.993304 1.054051
2011-02-15 06:46:42 51°21.494 2°52.502 6.3949 3.406444 34.004355 1.088875
2011-02-15 06:46:48 51°21.515 2°52.505 6.3983 3.406655 34.010953 0.949579
2011-02-15 06:46:53 51°21.533 2°52.508 6.3961 3.40676 34.013826 0.984403
2011-02-15 06:46:58 51°21.551 2°52.511 6.3885 3.406128 34.007666 0.949579
2011-02-15 06:47:02 51°21.565 2°52.513 6.3904 3.406128 34.007666 0.949579
2011-02-15 06:47:08 51°21.586 2°52.516 6.3892 3.406655 34.015215 0.984403
2011-02-15 06:47:13 51°21.604 2°52.519 6.3904 3.406866 34.015847 1.019227
2011-02-15 06:47:18 51°21.622 2°52.521 6.3842 3.406971 34.019574 0.810283
2011-02-15 06:47:23 51°21.639 2°52.524 6.3849 3.40676 34.015531 1.054051
2011-02-15 06:47:28 51°21.657 2°52.526 6.3882 3.406549 34.012341 0.984403
2011-02-15 06:47:33 51°21.675 2°52.529 6.3879 3.406549 34.012341 0.984403
2011-02-15 06:47:38 51°21.693 2°52.532 6.3819 3.406655 34.014362 1.019227
2011-02-15 06:47:43 51°21.71 2°52.535 6.3795 3.407393 34.024249 1.054051
2011-02-15 06:47:48 51°21.728 2°52.538 6.381 3.40676 34.018941 1.054051
2011-02-15 06:47:53 51°21.746 2°52.541 6.378 3.406971 34.021279 0.914755
2011-02-15 06:47:58 51°21.763 2°52.544 6.3779 3.407182 34.026175 0.775459
2011-02-15 06:48:02 51°21.777 2°52.547 6.3744 3.407182 34.026175 0.775459
2011-02-15 06:48:08 51°21.799 2°52.55 6.3724 3.407814 34.034896 0.984403
2011-02-15 06:48:13 51°21.816 2°52.552 6.3751 3.40792 34.035212 0.984403
2011-02-15 06:48:18 51°21.834 2°52.555 6.3705 3.40792 34.036918 1.019227
2011-02-15 06:48:23 51°21.852 2°52.558 6.3686 3.407814 34.037456 1.019227
2011-02-15 06:48:28 51°21.87 2°52.561 6.3677 3.408025 34.042354 1.019227
2011-02-15 06:48:33 51°21.887 2°52.563 6.3685 3.408025 34.042354 1.019227
2011-02-15 06:48:38 51°21.905 2°52.566 6.3656 3.40792 34.042892 0.845107
2011-02-15 06:48:43 51°21.923 2°52.568 6.3715 3.40792 34.044599 1.088875
2011-02-15 06:48:48 51°21.941 2°52.571 6.3674 3.408236 34.050669 0.914755
2011-02-15 06:48:53 51°21.959 2°52.573 6.3659 3.408025 34.046622 0.914755
2011-02-15 06:48:58 51°21.976 2°52.576 6.3698 3.408025 34.050892 0.914755
2011-02-15 06:49:02 51°21.991 2°52.579 6.3609 3.408025 34.050892 0.914755
2011-02-15 06:49:08 51°22.012 2°52.583 6.3641 3.408763 34.059933 0.879931
2011-02-15 06:49:13 51°22.03 2°52.586 6.3664 3.408553 34.059302 0.984403
2011-02-15 06:49:18 51°22.047 2°52.589 6.3578 3.408763 34.062496 0.949579
2011-02-15 06:49:23 51°22.065 2°52.593 6.3611 3.408869 34.061957 0.984403
2011-02-15 06:49:28 51°22.083 2°52.596 6.3582 3.408869 34.06452 0.984403
2011-02-15 06:49:33 51°22.101 2°52.601 6.3586 3.408869 34.06452 0.984403
2011-02-15 06:49:38 51°22.119 2°52.604 6.3622 3.40908 34.067714 0.914755
2011-02-15 06:49:43 51°22.136 2°52.608 6.3605 3.408869 34.066229 0.879931
2011-02-15 06:49:48 51°22.154 2°52.61 6.3617 3.408763 34.066768 0.740634
2011-02-15 06:49:53 51°22.172 2°52.614 6.3615 3.408553 34.066138 0.879931
2011-02-15 06:49:58 51°22.189 2°52.617 6.3635 3.408974 34.070817 0.845107
2011-02-15 06:50:02 51°22.204 2°52.62 6.3628 3.408974 34.070817 0.845107
2011-02-15 06:50:08 51°22.225 2°52.624 6.3646 3.408974 34.073382 0.949579
2011-02-15 06:50:13 51°22.243 2°52.627 6.3631 3.409501 34.080942 0.914755
2011-02-15 06:50:18 51°22.26 2°52.63 6.3643 3.410345 34.088593 0.949579
2011-02-15 06:50:23 51°22.278 2°52.632 6.3626 3.410555 34.090933 0.740634
2011-02-15 06:50:28 51°22.296 2°52.636 6.3689 3.411504 34.099754 0.914755
2011-02-15 06:50:33 51°22.314 2°52.638 6.3663 3.411504 34.099754 0.914755
2011-02-15 06:50:38 51°22.332 2°52.641 6.3669 3.412137 34.108486 0.914755
2011-02-15 06:50:43 51°22.35 2°52.644 6.3702 3.412031 34.107316 0.670986
2011-02-15 06:50:48 51°22.367 2°52.647 6.3664 3.412453 34.109429 0.740634
2011-02-15 06:50:53 51°22.385 2°52.649 6.3666 3.412875 34.116678 0.775459
2011-02-15 06:50:58 51°22.403 2°52.652 6.3671 3.41298 34.116992 0.914755
2011-02-15 06:51:03 51°22.42 2°52.655 6.3643 3.41298 34.116992 0.914755
2011-02-15 06:51:08 51°22.438 2°52.658 6.3643 3.413402 34.120817 0.914755
2011-02-15 06:51:13 51°22.456 2°52.661 6.3631 3.413296 34.117935 0.914755
2011-02-15 06:51:18 51°22.473 2°52.665 6.3637 3.413296 34.117935 0.879931
2011-02-15 06:51:23 51°22.491 2°52.668 6.3636 3.413612 34.121445 0.845107
2011-02-15 06:51:28 51°22.509 2°52.67 6.3594 3.413612 34.120589 0.914755
2011-02-15 06:51:33 51°22.526 2°52.673 6.3592 3.413612 34.120589 0.914755
2011-02-15 06:51:38 51°22.544 2°52.676 6.3565 3.414034 34.124414 0.914755
2011-02-15 06:51:43 51°22.562 2°52.679 6.3564 3.413823 34.124642 0.914755
2011-02-15 06:51:48 51°22.58 2°52.683 6.3578 3.41435 34.130493 0.810283
2011-02-15 06:51:53 51°22.597 2°52.685 6.3605 3.413718 34.123472 0.845107
2011-02-15 06:51:58 51°22.615 2°52.688 6.3637 3.413929 34.127524 0.914755
2011-02-15 06:52:03 51°22.633 2°52.69 6.3595 3.413929 34.127524 0.914755
2011-02-15 06:52:08 51°22.65 2°52.693 6.3544 3.413823 34.12721 0.70581
2011-02-15 06:52:13 51°22.668 2°52.695 6.3543 3.414034 34.130407 0.810283
2011-02-15 06:52:18 51°22.686 2°52.698 6.3516 3.413929 34.13095 0.810283
2011-02-15 06:52:23 51°22.703 2°52.7 6.3522 3.414034 34.134689 0.845107
2011-02-15 06:52:28 51°22.721 2°52.704 6.3573 3.414245 34.136174 0.775459
2011-02-15 06:52:33 51°22.739 2°52.707 6.3543 3.414245 34.136174 0.775459
2011-02-15 06:52:38 51°22.756 2°52.711 6.3496 3.41414 34.134147 0.914755
2011-02-15 06:52:43 51°22.774 2°52.713 6.3503 3.414034 34.133833 1.019227
2011-02-15 06:52:48 51°22.792 2°52.717 6.3503 3.41435 34.137344 0.810283
2011-02-15 06:52:53 51°22.809 2°52.719 6.3515 3.413823 34.134061 0.879931
2011-02-15 06:52:58 51°22.827 2°52.723 6.3515 3.413718 34.134604 0.914755
2011-02-15 06:53:03 51°22.845 2°52.726 6.3569 3.413718 34.134604 0.914755
2011-02-15 06:53:08 51°22.862 2°52.729 6.3503 3.413718 34.133748 0.949579
2011-02-15 06:53:13 51°22.88 2°52.732 6.3552 3.413718 34.133748 0.949579
2011-02-15 06:53:18 51°22.897 2°52.737 6.3494 3.413823 34.137488 0.775459
2011-02-15 06:53:23 51°22.914 2°52.742 6.351 3.413823 34.138345 0.914755
2011-02-15 06:53:28 51°22.932 2°52.746 6.3515 3.413929 34.139516 0.70581
2011-02-15 06:53:33 51°22.949 2°52.751 6.3552 3.413929 34.139516 0.70581
2011-02-15 06:53:38 51°22.967 2°52.757 6.3573 3.413823 34.137488 0.879931
2011-02-15 06:53:43 51°22.984 2°52.763 6.3594 3.413929 34.138659 0.810283
2011-02-15 06:53:47 51°22.998 2°52.768 6.3611 3.414351 34.141628 0.949579
2011-02-15 06:53:53 51°23.018 2°52.775 6.3567 3.413613 34.135147 0.775459
2011-02-15 06:53:58 51°23.036 2°52.781 6.351 3.414245 34.142171 0.70581
2011-02-15 06:54:02 51°23.049 2°52.786 6.3526 3.414245 34.142171 0.70581
2011-02-15 06:54:08 51°23.07 2°52.793 6.3503 3.413718 34.135461 0.914755
2011-02-15 06:54:13 51°23.088 2°52.798 6.3523 3.413823 34.137488 0.740634
2011-02-15 06:54:18 51°23.105 2°52.803 6.3521 3.413613 34.132577 0.914755
2011-02-15 06:54:23 51°23.122 2°52.809 6.3547 3.413823 34.132348 0.740634
2011-02-15 06:54:28 51°23.139 2°52.814 6.3554 3.413929 34.135232 0.775459
2011-02-15 06:54:33 51°23.157 2°52.82 6.3535 3.413929 34.135232 0.775459
2011-02-15 06:54:38 51°23.174 2°52.826 6.3547 3.413929 34.135232 0.775459
2011-02-15 06:54:43 51°23.191 2°52.832 6.3503 3.414034 34.138116 0.845107
2011-02-15 06:54:48 51°23.209 2°52.838 6.3508 3.413823 34.137488 0.70581
2011-02-15 06:54:53 51°23.226 2°52.844 6.3533 3.41414 34.141 0.670986
2011-02-15 06:54:58 51°23.243 2°52.85 6.3544 3.414456 34.143655 0.810283
2011-02-15 06:55:03 51°23.261 2°52.855 6.356 3.414456 34.143655 0.810283
2011-02-15 06:55:08 51°23.278 2°52.861 6.3507 3.41414 34.140143 0.949579
2011-02-15 06:55:13 51°23.295 2°52.867 6.3542 3.414245 34.141314 0.775459
2011-02-15 06:55:18 51°23.312 2°52.873 6.3523 3.413613 34.13429 0.810283
2011-02-15 06:55:22 51°23.326 2°52.877 6.3542 3.413929 34.138659 0.70581
2011-02-15 06:55:28 51°23.347 2°52.883 6.3502 3.413823 34.138345 0.775459
2011-02-15 06:55:33 51°23.364 2°52.888 6.354 3.413823 34.138345 0.775459
2011-02-15 06:55:38 51°23.381 2°52.893 6.3489 3.414351 34.143342 0.775459
2011-02-15 06:55:42 51°23.395 2°52.897 6.3517 3.414878 34.150052 0.670986
2011-02-15 06:55:48 51°23.416 2°52.904 6.3486 3.414667 34.147711 0.810283
2011-02-15 06:55:53 51°23.433 2°52.908 6.3511 3.41414 34.141857 0.740634
2011-02-15 06:55:58 51°23.451 2°52.914 6.3514 3.414772 34.148025 0.775459
2011-02-15 06:56:02 51°23.465 2°52.919 6.353 3.414772 34.148025 0.775459
2011-02-15 06:56:08 51°23.485 2°52.926 6.3505 3.414456 34.146226 0.845107
2011-02-15 06:56:13 51°23.503 2°52.93 6.3542 3.414456 34.146226 0.775459
2011-02-15 06:56:18 51°23.52 2°52.936 6.3561 3.415194 34.156136 0.740634
2011-02-15 06:56:23 51°23.538 2°52.941 6.3593 3.415194 34.154422 0.879931
2011-02-15 06:56:28 51°23.555 2°52.946 6.3577 3.415405 34.159336 0.810283
2011-02-15 06:56:33 51°23.573 2°52.952 6.3551 3.415405 34.159336 0.810283
2011-02-15 06:56:38 51°23.59 2°52.957 6.3562 3.41551 34.159649 0.670986
2011-02-15 06:56:43 51°23.607 2°52.962 6.3586 3.41551 34.158792 0.914755
2011-02-15 06:56:48 51°23.625 2°52.968 6.3612 3.415405 34.156764 0.914755
2011-02-15 06:56:53 51°23.642 2°52.973 6.3594 3.415721 34.161133 0.810283
2011-02-15 06:56:58 51°23.66 2°52.979 6.3626 3.416037 34.162931 0.984403
2011-02-15 06:57:03 51°23.677 2°52.985 6.36 3.416037 34.162931 0.984403
2011-02-15 06:57:08 51°23.694 2°52.99 6.3613 3.416353 34.164729 0.949579
2011-02-15 06:57:13 51°23.711 2°52.996 6.3634 3.416459 34.165042 0.775459
2011-02-15 06:57:18 51°23.729 2°53.001 6.3665 3.416564 34.165355 0.810283
2011-02-15 06:57:23 51°23.746 2°53.006 6.3667 3.41688 34.16801 0.810283
2011-02-15 06:57:28 51°23.764 2°53.011 6.3665 3.41688 34.166295 0.949579
2011-02-15 06:57:33 51°23.781 2°53.017 6.3643 3.41688 34.166295 0.949579
2011-02-15 06:57:38 51°23.798 2°53.022 6.3645 3.417091 34.167779 0.879931
2011-02-15 06:57:43 51°23.816 2°53.028 6.3706 3.417197 34.16895 0.810283
2011-02-15 06:57:48 51°23.833 2°53.032 6.3659 3.417513 34.172462 0.775459
2011-02-15 06:57:53 51°23.85 2°53.038 6.367 3.417829 34.175117 0.70581
2011-02-15 06:57:58 51°23.868 2°53.042 6.3717 3.417724 34.172231 0.636162
2011-02-15 06:58:02 51°23.882 2°53.045 6.368 3.417724 34.172231 0.636162
2011-02-15 06:58:08 51°23.903 2°53.05 6.3716 3.418145 34.175198 0.879931
2011-02-15 06:58:13 51°23.92 2°53.054 6.3672 3.418356 34.179255 0.810283
2011-02-15 06:58:18 51°23.938 2°53.058 6.3702 3.418356 34.178397 0.775459
2011-02-15 06:58:23 51°23.955 2°53.063 6.3684 3.418672 34.181051 0.879931
2011-02-15 06:58:27 51°23.969 2°53.067 6.3717 3.418883 34.182535 0.670986
2011-02-15 06:58:33 51°23.99 2°53.073 6.373 3.418883 34.182535 0.670986
2011-02-15 06:58:38 51°24.007 2°53.079 6.37 3.402228 33.996805 0.845107
2011-02-15 06:58:42 51°24.021 2°53.083 6.3728 3.419199 34.183474 0.949579
2011-02-15 06:58:48 51°24.042 2°53.09 6.3755 3.419305 34.183787 0.845107
2011-02-15 06:58:53 51°24.06 2°53.095 6.3778 3.419305 34.182929 0.775459
2011-02-15 06:58:58 51°24.076 2°53.1 6.3742 3.419621 34.188156 0.914755
2011-02-15 06:59:03 51°24.094 2°53.105 6.3785 3.419621 34.188156 0.914755
2011-02-15 06:59:08 51°24.111 2°53.11 6.3772 3.419516 34.186985 0.984403
2011-02-15 06:59:13 51°24.129 2°53.115 6.3799 3.419516 34.186128 0.914755
2011-02-15 06:59:18 51°24.146 2°53.12 6.3787 3.419727 34.187611 0.879931
2011-02-15 06:59:23 51°24.163 2°53.125 6.3829 3.420043 34.190265 0.984403
2011-02-15 06:59:28 51°24.181 2°53.13 6.3824 3.420148 34.190578 0.949579
2011-02-15 06:59:33 51°24.198 2°53.136 6.3802 3.420148 34.190578 0.949579
2011-02-15 06:59:38 51°24.215 2°53.141 6.3815 3.420359 34.192061 0.879931
2011-02-15 06:59:43 51°24.233 2°53.146 6.3819 3.420359 34.190346 0.775459
2011-02-15 06:59:48 51°24.25 2°53.151 6.3824 3.42057 34.190971 0.740634
2011-02-15 06:59:53 51°24.267 2°53.157 6.386 3.420675 34.192142 0.879931
2011-02-15 06:59:58 51°24.284 2°53.163 6.3835 3.420886 34.192767 0.949579
2011-02-15 07:00:02 51°24.298 2°53.168 6.3841 3.420886 34.192767 0.949579
2011-02-15 07:00:08 51°24.318 2°53.174 6.3831 3.420781 34.190739 0.845107
2011-02-15 07:00:13 51°24.336 2°53.18 6.3842 3.421097 34.192535 0.775459
2011-02-15 07:00:18 51°24.353 2°53.185 6.3889 3.421413 34.196903 0.949579
2011-02-15 07:00:22 51°24.366 2°53.19 6.3881 3.421413 34.194331 0.845107
2011-02-15 07:00:28 51°24.387 2°53.196 6.3926 3.421835 34.199011 0.949579
2011-02-15 07:00:33 51°24.404 2°53.202 6.3883 3.421835 34.199011 0.949579
2011-02-15 07:00:38 51°24.422 2°53.207 6.3906 3.421202 34.191133 0.845107
2011-02-15 07:00:43 51°24.439 2°53.214 6.3871 3.421624 34.195813 0.879931
2011-02-15 07:00:48 51°24.456 2°53.219 6.3933 3.421518 34.194643 0.845107
2011-02-15 07:00:53 51°24.473 2°53.224 6.3895 3.421624 34.194099 0.845107
2011-02-15 07:00:58 51°24.49 2°53.23 6.3888 3.421729 34.196126 0.670986
2011-02-15 07:01:03 51°24.508 2°53.236 6.3904 3.421729 34.196126 0.670986
2011-02-15 07:01:08 51°24.525 2°53.241 6.3901 3.421835 34.194724 0.984403
2011-02-15 07:01:13 51°24.542 2°53.246 6.3888 3.422362 34.199717 0.914755
2011-02-15 07:01:18 51°24.56 2°53.251 6.391 3.42194 34.193322 0.775459
2011-02-15 07:01:23 51°24.577 2°53.256 6.3899 3.422362 34.198859 0.810283
2011-02-15 07:01:28 51°24.594 2°53.261 6.391 3.422362 34.197144 0.740634
2011-02-15 07:01:33 51°24.612 2°53.266 6.3895 3.422362 34.197144 0.740634
2011-02-15 07:01:38 51°24.629 2°53.271 6.3905 3.422573 34.200342 0.740634
2011-02-15 07:01:43 51°24.647 2°53.276 6.3901 3.422467 34.200029 0.914755
2011-02-15 07:01:48 51°24.664 2°53.28 6.3911 3.422678 34.199797 0.879931
2011-02-15 07:01:53 51°24.681 2°53.286 6.3894 3.421729 34.190125 0.810283
2011-02-15 07:01:58 51°24.699 2°53.291 6.3907 3.422362 34.198002 0.740634
2011-02-15 07:02:03 51°24.716 2°53.297 6.3907 3.422362 34.198002 0.740634
2011-02-15 07:02:08 51°24.733 2°53.302 6.3903 3.422467 34.198314 0.740634
2011-02-15 07:02:13 51°24.75 2°53.307 6.3934 3.422362 34.198002 0.810283
2011-02-15 07:02:18 51°24.767 2°53.313 6.3919 3.422151 34.195662 0.775459
2011-02-15 07:02:23 51°24.785 2°53.318 6.3937 3.422467 34.199172 0.70581
2011-02-15 07:02:28 51°24.802 2°53.325 6.3912 3.422467 34.199172 0.70581
2011-02-15 07:02:33 51°24.819 2°53.33 6.3958 3.422467 34.199172 0.70581
2011-02-15 07:02:38 51°24.836 2°53.336 6.3955 3.422362 34.198002 0.810283
2011-02-15 07:02:42 51°24.85 2°53.341 6.3944 3.422573 34.199484 0.636162
2011-02-15 07:02:48 51°24.87 2°53.349 6.3946 3.422573 34.198627 0.810283
2011-02-15 07:02:53 51°24.887 2°53.355 6.3995 3.422573 34.198627 0.740634
2011-02-15 07:02:58 51°24.905 2°53.361 6.3978 3.422783 34.200109 0.70581
2011-02-15 07:03:03 51°24.922 2°53.367 6.3954 3.422783 34.200109 0.70581
2011-02-15 07:03:08 51°24.939 2°53.372 6.3975 3.422678 34.198082 0.70581
2011-02-15 07:03:13 51°24.956 2°53.378 6.3981 3.422678 34.197225 0.879931
2011-02-15 07:03:18 51°24.973 2°53.384 6.4005 3.422783 34.198395 0.70581
2011-02-15 07:03:23 51°24.99 2°53.389 6.396 3.422889 34.198707 0.740634
2011-02-15 07:03:28 51°25.008 2°53.395 6.3944 3.423205 34.202217 0.775459
2011-02-15 07:03:33 51°25.025 2°53.401 6.4008 3.423205 34.202217 0.775459
2011-02-15 07:03:38 51°25.042 2°53.406 6.4 3.42331 34.200815 0.670986
2011-02-15 07:03:43 51°25.059 2°53.412 6.4001 3.42331 34.202529 0.810283
2011-02-15 07:03:48 51°25.077 2°53.417 6.3982 3.42331 34.200815 0.775459
2011-02-15 07:03:53 51°25.094 2°53.423 6.4015 3.423416 34.202842 0.914755
2011-02-15 07:03:58 51°25.111 2°53.427 6.3987 3.42331 34.199958 0.879931
2011-02-15 07:04:03 51°25.129 2°53.433 6.401 3.42331 34.199958 0.879931
2011-02-15 07:04:08 51°25.146 2°53.438 6.398 3.423521 34.204012 0.810283
2011-02-15 07:04:13 51°25.164 2°53.443 6.3995 3.423521 34.203154 0.879931
2011-02-15 07:04:18 51°25.181 2°53.448 6.4008 3.42331 34.198243 0.879931
2011-02-15 07:04:22 51°25.195 2°53.453 6.3985 3.423416 34.201985 0.879931
2011-02-15 07:04:28 51°25.216 2°53.459 6.3974 3.423627 34.203467 0.845107
2011-02-15 07:04:33 51°25.233 2°53.464 6.3985 3.423627 34.203467 0.845107
2011-02-15 07:04:38 51°25.25 2°53.469 6.3964 3.423943 34.206976 0.845107
2011-02-15 07:04:43 51°25.268 2°53.474 6.4001 3.423943 34.206119 0.914755
2011-02-15 07:04:48 51°25.286 2°53.478 6.3938 3.423627 34.203467 0.845107
2011-02-15 07:04:53 51°25.303 2°53.482 6.3898 3.423732 34.202065 0.810283
2011-02-15 07:04:58 51°25.32 2°53.487 6.393 3.423627 34.201752 0.914755
2011-02-15 07:05:03 51°25.338 2°53.491 6.3906 3.423627 34.201752 0.914755
2011-02-15 07:05:08 51°25.355 2°53.496 6.3927 3.423627 34.203467 0.810283
2011-02-15 07:05:13 51°25.372 2°53.501 6.391 3.42331 34.199958 0.70581
2011-02-15 07:05:18 51°25.39 2°53.506 6.3906 3.423627 34.205182 0.810283
2011-02-15 07:05:23 51°25.407 2°53.511 6.3833 3.4231 34.198475 0.845107
2011-02-15 07:05:28 51°25.424 2°53.516 6.3843 3.4231 34.201047 0.845107
2011-02-15 07:05:33 51°25.442 2°53.521 6.3853 3.4231 34.201047 0.845107
2011-02-15 07:05:38 51°25.459 2°53.527 6.3867 3.422678 34.198082 0.949579
2011-02-15 07:05:43 51°25.476 2°53.532 6.3849 3.422994 34.200735 0.845107
2011-02-15 07:05:48 51°25.494 2°53.537 6.3828 3.422467 34.195743 0.810283
2011-02-15 07:05:53 51°25.511 2°53.542 6.3812 3.422151 34.194805 0.845107
2011-02-15 07:05:58 51°25.528 2°53.547 6.3791 3.422151 34.196519 0.845107
2011-02-15 07:06:03 51°25.546 2°53.553 6.3815 3.422151 34.196519 0.845107
2011-02-15 07:06:08 51°25.563 2°53.558 6.3824 3.421835 34.195581 0.879931
2011-02-15 07:06:13 51°25.581 2°53.564 6.3756 3.421624 34.193241 0.879931
2011-02-15 07:06:18 51°25.598 2°53.569 6.3762 3.421518 34.191214 0.845107
2011-02-15 07:06:23 51°25.615 2°53.575 6.3737 3.421308 34.191446 0.775459
2011-02-15 07:06:28 51°25.632 2°53.58 6.3708 3.421202 34.190276 0.845107
2011-02-15 07:06:33 51°25.65 2°53.586 6.371 3.421202 34.190276 0.845107
2011-02-15 07:06:38 51°25.667 2°53.591 6.3699 3.421413 34.194331 0.740634
2011-02-15 07:06:43 51°25.684 2°53.596 6.3738 3.420781 34.188167 0.810283
2011-02-15 07:06:48 51°25.701 2°53.601 6.3716 3.420464 34.185514 0.810283
2011-02-15 07:06:53 51°25.719 2°53.607 6.3736 3.420254 34.185746 0.810283
2011-02-15 07:06:58 51°25.736 2°53.613 6.372 3.420359 34.187773 0.810283
2011-02-15 07:07:02 51°25.75 2°53.617 6.3684 3.420359 34.187773 0.810283
2011-02-15 07:07:08 51°25.77 2°53.624 6.3698 3.420043 34.186835 0.775459
2011-02-15 07:07:13 51°25.788 2°53.629 6.3695 3.419937 34.189094 0.949579
2011-02-15 07:07:18 51°25.806 2°53.635 6.3611 3.419516 34.182698 0.845107
2011-02-15 07:07:23 51°25.823 2°53.64 6.3643 3.419621 34.184726 0.775459
2011-02-15 07:07:27 51°25.837 2°53.644 6.3655 3.419199 34.179187 0.775459
2011-02-15 07:07:33 51°25.858 2°53.65 6.3586 3.419199 34.179187 0.775459
2011-02-15 07:07:38 51°25.876 2°53.655 6.3588 3.419199 34.180044 0.810283
2011-02-15 07:07:42 51°25.89 2°53.658 6.3572 3.418989 34.177703 0.740634
2011-02-15 07:07:48 51°25.911 2°53.664 6.3535 3.418989 34.178561 0.740634
2011-02-15 07:07:53 51°25.929 2°53.67 6.3615 3.418778 34.179649 0.740634
2011-02-15 07:07:58 51°25.946 2°53.674 6.3547 3.418778 34.179649 0.740634
2011-02-15 07:08:03 51°25.964 2°53.679 6.3506 3.418778 34.179649 0.740634
2011-02-15 07:08:08 51°25.981 2°53.682 6.356 3.418462 34.177853 0.775459
2011-02-15 07:08:13 51°25.999 2°53.687 6.3487 3.418145 34.176056 0.810283
2011-02-15 07:08:18 51°26.017 2°53.691 6.3515 3.417829 34.175974 0.740634
2011-02-15 07:08:22 51°26.031 2°53.696 6.3459 3.417618 34.175348 0.670986
2011-02-15 07:08:28 51°26.052 2°53.7 6.3512 3.417513 34.175035 0.775459
2011-02-15 07:08:33 51°26.069 2°53.706 6.3475 3.417513 34.175035 0.775459
2011-02-15 07:08:38 51°26.087 2°53.711 6.345 3.417513 34.175892 0.70581
2011-02-15 07:08:43 51°26.104 2°53.716 6.3403 3.416986 34.172611 0.810283
2011-02-15 07:08:48 51°26.122 2°53.721 6.346 3.41667 34.169099 0.810283
2011-02-15 07:08:53 51°26.139 2°53.726 6.3413 3.416248 34.16613 0.740634
2011-02-15 07:08:58 51°26.157 2°53.731 6.3402 3.416143 34.166675 0.740634
2011-02-15 07:09:03 51°26.175 2°53.736 6.3381 3.416143 34.166675 0.740634
2011-02-15 07:09:08 51°26.192 2°53.742 6.339 3.415721 34.163706 0.70581
2011-02-15 07:09:13 51°26.209 2°53.747 6.339 3.415616 34.163393 0.670986
2011-02-15 07:09:18 51°26.227 2°53.752 6.3383 3.415405 34.163623 0.740634
2011-02-15 07:09:23 51°26.245 2°53.757 6.3369 3.415299 34.164168 0.845107
2011-02-15 07:09:27 51°26.259 2°53.762 6.3351 3.414983 34.161512 0.670986
2011-02-15 07:09:33 51°26.28 2°53.769 6.3361 3.414983 34.161512 0.670986
2011-02-15 07:09:38 51°26.298 2°53.774 6.3365 3.414561 34.157685 0.740634
2011-02-15 07:09:42 51°26.311 2°53.778 6.3378 3.414456 34.159087 0.740634
2011-02-15 07:09:48 51°26.333 2°53.785 6.3337 3.414562 34.160258 0.636162
2011-02-15 07:09:53 51°26.35 2°53.791 6.3342 3.414456 34.159087 0.845107
2011-02-15 07:09:58 51°26.367 2°53.796 6.3325 3.414034 34.154402 0.636162
2011-02-15 07:10:03 51°26.385 2°53.801 6.3255 3.414034 34.154402 0.636162
2011-02-15 07:10:08 51°26.403 2°53.806 6.3285 3.414034 34.156975 0.775459
2011-02-15 07:10:13 51°26.42 2°53.811 6.3247 3.413507 34.150261 0.601338
2011-02-15 07:10:18 51°26.438 2°53.816 6.3253 3.413613 34.153147 0.636162
2011-02-15 07:10:23 51°26.456 2°53.82 6.3252 3.413402 34.149947 0.601338
2011-02-15 07:10:28 51°26.473 2°53.825 6.3224 3.413613 34.155721 0.810283
2011-02-15 07:10:33 51°26.491 2°53.829 6.3212 3.413613 34.155721 0.810283
2011-02-15 07:10:38 51°26.508 2°53.834 6.3194 3.413297 34.152207 0.775459
2011-02-15 07:10:43 51°26.526 2°53.837 6.3206 3.413086 34.152437 0.845107
2011-02-15 07:10:48 51°26.544 2°53.842 6.3191 3.41298 34.152981 0.740634
2011-02-15 07:10:53 51°26.562 2°53.846 6.3148 3.412664 34.15204 0.70581
2011-02-15 07:10:58 51°26.579 2°53.852 6.3146 3.412348 34.150241 0.845107
2011-02-15 07:11:02 51°26.593 2°53.857 6.312 3.412348 34.150241 0.845107
2011-02-15 07:11:08 51°26.614 2°53.863 6.311 3.411926 34.145555 0.70581
2011-02-15 07:11:13 51°26.632 2°53.868 6.3134 3.410451 34.13001 0.740634
2011-02-15 07:11:18 51°26.649 2°53.874 6.3089 3.411505 34.145157 0.810283
2011-02-15 07:11:22 51°26.663 2°53.878 6.313 3.410345 34.133126 0.636162
2011-02-15 07:11:28 51°26.685 2°53.884 6.3127 3.410029 34.130469 0.636162
2011-02-15 07:11:33 51°26.702 2°53.888 6.3134 3.410029 34.130469 0.636162
2011-02-15 07:11:38 51°26.72 2°53.894 6.3175 3.409713 34.128669 0.740634
2011-02-15 07:11:42 51°26.734 2°53.898 6.3138 3.410872 34.144132 0.775459
2011-02-15 07:11:48 51°26.755 2°53.904 6.3146 3.411189 34.148506 0.70581
2011-02-15 07:11:53 51°26.773 2°53.91 6.3197 3.410451 34.142018 0.740634
2011-02-15 07:11:58 51°26.79 2°53.916 6.3274 3.410556 34.144048 0.740634
2011-02-15 07:12:03 51°26.808 2°53.921 6.3315 3.410556 34.144048 0.740634
2011-02-15 07:12:08 51°26.825 2°53.927 6.3351 3.410451 34.142018 0.740634
2011-02-15 07:12:13 51°26.843 2°53.932 6.3442 3.410345 34.141704 0.636162
2011-02-15 07:12:18 51°26.86 2°53.938 6.3493 3.41024 34.139674 0.740634
2011-02-15 07:12:23 51°26.878 2°53.943 6.3532 3.410978 34.14702 0.70581
2011-02-15 07:12:28 51°26.895 2°53.949 6.3562 3.410872 34.14499 0.740634
2011-02-15 07:12:33 51°26.913 2°53.954 6.3567 3.410872 34.14499 0.740634
2011-02-15 07:12:38 51°26.93 2°53.96 6.3611 3.411505 34.148589 0.670986
2011-02-15 07:12:43 51°26.948 2°53.965 6.3625 3.412559 34.156016 0.670986
2011-02-15 07:12:48 51°26.965 2°53.971 6.3658 3.413718 34.163756 0.740634
2011-02-15 07:12:53 51°26.982 2°53.977 6.369 3.414035 34.159548 0.70581
2011-02-15 07:12:58 51°26.999 2°53.983 6.3719 3.415299 34.168457 0.670986
2011-02-15 07:13:03 51°27.017 2°53.988 6.3692 3.415299 34.168457 0.670986
2011-02-15 07:13:08 51°27.035 2°53.994 6.3674 3.415721 34.16971 0.70581
2011-02-15 07:13:13 51°27.053 2°53.999 6.369 3.416354 34.172447 0.740634
2011-02-15 07:13:18 51°27.07 2°54.005 6.3674 3.417513 34.181039 0.775459
2011-02-15 07:13:23 51°27.088 2°54.01 6.3694 3.417829 34.18112 0.670986
2011-02-15 07:13:28 51°27.105 2°54.016 6.369 3.418356 34.184401 0.879931
2011-02-15 07:13:33 51°27.123 2°54.02 6.3703 3.418356 34.184401 0.879931
2011-02-15 07:13:38 51°27.14 2°54.026 6.3726 3.418883 34.185966 0.845107
2011-02-15 07:13:42 51°27.154 2°54.03 6.3731 3.418567 34.181596 0.740634
2011-02-15 07:13:48 51°27.175 2°54.036 6.3705 3.418883 34.18425 0.740634
2011-02-15 07:13:53 51°27.193 2°54.041 6.3701 3.419516 34.191274 0.70581
2011-02-15 07:13:58 51°27.21 2°54.046 6.3718 3.41941 34.190104 0.670986
2011-02-15 07:14:03 51°27.227 2°54.051 6.3737 3.41941 34.190104 0.670986
2011-02-15 07:14:08 51°27.245 2°54.056 6.3727 3.41941 34.189246 0.70581
2011-02-15 07:14:13 51°27.262 2°54.061 6.3732 3.419621 34.189871 0.810283
2011-02-15 07:14:18 51°27.28 2°54.066 6.3697 3.419727 34.190184 0.670986
2011-02-15 07:14:23 51°27.297 2°54.072 6.3725 3.419727 34.189326 0.670986
2011-02-15 07:14:28 51°27.314 2°54.077 6.3747 3.420465 34.200094 0.670986
2011-02-15 07:14:33 51°27.332 2°54.083 6.3722 3.420465 34.200094 0.670986
2011-02-15 07:14:38 51°27.349 2°54.089 6.3745 3.420359 34.197208 0.70581
2011-02-15 07:14:43 51°27.366 2°54.096 6.3775 3.420675 34.200719 0.601338
2011-02-15 07:14:48 51°27.384 2°54.102 6.3804 3.420359 34.195492 0.670986
2011-02-15 07:14:53 51°27.402 2°54.108 6.38 3.420781 34.199316 0.601338
2011-02-15 07:14:58 51°27.419 2°54.114 6.3776 3.420886 34.202203 0.670986
2011-02-15 07:15:03 51°27.436 2°54.119 6.3836 3.420886 34.202203 0.670986
2011-02-15 07:15:08 51°27.454 2°54.125 6.3799 3.420992 34.201657 0.70581
2011-02-15 07:15:13 51°27.472 2°54.13 6.3832 3.420886 34.199629 0.775459
2011-02-15 07:15:18 51°27.489 2°54.136 6.3811 3.421413 34.204623 0.740634
2011-02-15 07:15:23 51°27.507 2°54.14 6.3795 3.421835 34.209305 0.636162
2011-02-15 07:15:28 51°27.525 2°54.145 6.3821 3.421624 34.205248 0.601338
2011-02-15 07:15:33 51°27.543 2°54.15 6.3864 3.421624 34.205248 0.601338
2011-02-15 07:15:38 51°27.56 2°54.155 6.3876 3.421413 34.201192 0.670986
2011-02-15 07:15:43 51°27.578 2°54.16 6.3888 3.42194 34.207902 0.566514
2011-02-15 07:15:48 51°27.595 2°54.165 6.3932 3.422151 34.207669 0.740634
2011-02-15 07:15:53 51°27.613 2°54.171 6.39 3.422362 34.210009 0.636162
2011-02-15 07:15:58 51°27.631 2°54.176 6.3904 3.422994 34.216174 0.601338
2011-02-15 07:16:02 51°27.645 2°54.18 6.3896 3.422994 34.216174 0.601338
2011-02-15 07:16:08 51°27.666 2°54.184 6.3867 3.422784 34.215549 0.53169
2011-02-15 07:16:13 51°27.684 2°54.186 6.3908 3.4231 34.215628 0.70581
2011-02-15 07:16:18 51°27.702 2°54.188 6.3908 3.423205 34.215082 0.636162
2011-02-15 07:16:23 51°27.72 2°54.189 6.3934 3.423627 34.218047 0.496866
2011-02-15 07:16:28 51°27.737 2°54.19 6.3949 3.424048 34.221012 0.636162
2011-02-15 07:16:33 51°27.755 2°54.192 6.3963 3.424048 34.221012 0.636162
2011-02-15 07:16:38 51°27.774 2°54.192 6.398 3.424681 34.228033 0.601338
2011-02-15 07:16:43 51°27.792 2°54.192 6.3951 3.424259 34.223352 0.670986
2011-02-15 07:16:48 51°27.809 2°54.194 6.3951 3.424576 34.227721 0.810283
2011-02-15 07:16:53 51°27.827 2°54.195 6.3949 3.424892 34.229515 0.740634
2011-02-15 07:16:58 51°27.845 2°54.196 6.3975 3.424892 34.228657 0.70581
2011-02-15 07:17:03 51°27.863 2°54.197 6.3972 3.424892 34.228657 0.70581
2011-02-15 07:17:08 51°27.881 2°54.199 6.3983 3.42563 34.23599 0.70581
2011-02-15 07:17:13 51°27.898 2°54.201 6.4038 3.425524 34.233104 0.740634
2011-02-15 07:17:18 51°27.916 2°54.204 6.3951 3.425208 34.227019 0.740634
2011-02-15 07:17:22 51°27.93 2°54.206 6.3943 3.42584 34.234039 0.601338
2011-02-15 07:17:28 51°27.952 2°54.21 6.3975 3.425946 34.235209 0.70581
2011-02-15 07:17:33 51°27.969 2°54.213 6.3952 3.425946 34.235209 0.70581